Observation data for Throckmorton on 01/20/2019      Previous  Date  Next       Current Mesonet Observations  Soil Data  Daily Summary Page  Observations in Plain Language
KTH1 200600Z 05006KT M02/M06 A3036 RMK A01 T10211059  RH  075%=      5-min Rain = 0
KTH1 200601Z 06007KT M02/M06 A3036 RMK A01 T10211059  RH  075%=      5-min Rain = 0
KTH1 200602Z 06006KT M02/M06 A3036 RMK A01 T10211059  RH  075%=      5-min Rain = 0
KTH1 200603Z 06006KT M02/M06 A3036 RMK A01 T10211059  RH  075%=      5-min Rain = 0
KTH1 200604Z 06005KT M02/M06 A3036 RMK A01 T10211059  RH  075%=      5-min Rain = 0
KTH1 200605Z 07006KT M02/M06 A3036 RMK A01 T10201059  RH  075%=      5-min Rain = 0
KTH1 200606Z 07005KT M02/M06 A3036 RMK A01 T10211059  RH  075%=      5-min Rain = 0
KTH1 200607Z 07004KT M02/M06 A3036 RMK A01 T10211059  RH  075%=      5-min Rain = 0
KTH1 200608Z 07004KT M02/M06 A3036 RMK A01 T10211058  RH  076%=      5-min Rain = 0
KTH1 200609Z 08005KT M02/M06 A3036 RMK A01 T10221058  RH  077%=      5-min Rain = 0
KTH1 200610Z 08005KT M02/M06 A3036 RMK A01 T10231058  RH  077%=      5-min Rain = 0
KTH1 200611Z 07004KT M02/M06 A3036 RMK A01 T10241058  RH  077%=      5-min Rain = 0
KTH1 200612Z 07004KT M02/M06 A3036 RMK A01 T10241058  RH  078%=      5-min Rain = 0
KTH1 200613Z 07003KT M02/M06 A3037 RMK A01 T10241058  RH  078%=      5-min Rain = 0
KTH1 200614Z 07003KT M02/M06 A3037 RMK A01 T10241058  RH  078%=      5-min Rain = 0
KTH1 200615Z 08003KT M02/M06 A3037 RMK A01 T10241057  RH  078%=      5-min Rain = 0
KTH1 200616Z 08002KT M03/M06 A3037 RMK A01 T10251058  RH  078%=      5-min Rain = 0
KTH1 200617Z 08002KT M03/M06 A3037 RMK A01 T10251058  RH  078%=      5-min Rain = 0
KTH1 200618Z 08002KT M03/M06 A3037 RMK A01 T10251059  RH  078%=      5-min Rain = 0
KTH1 200619Z 07002KT M03/M06 A3037 RMK A01 T10251058  RH  078%=      5-min Rain = 0
KTH1 200620Z 06003KT M03/M06 A3037 RMK A01 T10251058  RH  078%=      5-min Rain = 0
KTH1 200621Z 06004KT M03/M06 A3037 RMK A01 T10251059  RH  078%=      5-min Rain = 0
KTH1 200622Z 06004KT M03/M06 A3037 RMK A01 T10251058  RH  078%=      5-min Rain = 0
KTH1 200623Z 07003KT M02/M06 A3037 RMK A01 T10241059  RH  077%=      5-min Rain = 0
KTH1 200624Z 06003KT M02/M06 A3037 RMK A01 T10241058  RH  077%=      5-min Rain = 0
KTH1 200625Z 06003KT M02/M06 A3037 RMK A01 T10231059  RH  077%=      5-min Rain = 0
KTH1 200626Z 07002KT M02/M06 A3037 RMK A01 T10241060  RH  076%=      5-min Rain = 0
KTH1 200627Z 08001KT M02/M06 A3038 RMK A01 T10241060  RH  076%=      5-min Rain = 0
KTH1 200628Z 08001KT M02/M06 A3037 RMK A01 T10241060  RH  076%=      5-min Rain = 0
KTH1 200629Z 08001KT M02/M06 A3037 RMK A01 T10231060  RH  076%=      5-min Rain = 0
KTH1 200630Z 11001KT M02/M06 A3037 RMK A01 T10231060  RH  076%=      5-min Rain = 0
KTH1 200631Z 12002KT M02/M06 A3037 RMK A01 T10231060  RH  076%=      5-min Rain = 0
KTH1 200632Z 11003KT M02/M06 A3037 RMK A01 T10231060  RH  075%=      5-min Rain = 0
KTH1 200633Z 11002KT M02/M06 A3037 RMK A01 T10221060  RH  075%=      5-min Rain = 0
KTH1 200634Z 10003KT M02/M06 A3037 RMK A01 T10221059  RH  075%=      5-min Rain = 0
KTH1 200635Z 11003KT M02/M06 A3037 RMK A01 T10211060  RH  075%=      5-min Rain = 0
KTH1 200636Z 11003KT M02/M06 A3037 RMK A01 T10211060  RH  074%=      5-min Rain = 0
KTH1 200637Z 10002KT M02/M06 A3037 RMK A01 T10201061  RH  074%=      5-min Rain = 0
KTH1 200638Z 12002KT M02/M06 A3037 RMK A01 T10191061  RH  073%=      5-min Rain = 0
KTH1 200639Z 09001KT M02/M06 A3037 RMK A01 T10191061  RH  073%=      5-min Rain = 0
KTH1 200640Z 09002KT M02/M06 A3037 RMK A01 T10191061  RH  073%=      5-min Rain = 0
KTH1 200641Z 08002KT M02/M06 A3037 RMK A01 T10191062  RH  073%=      5-min Rain = 0
KTH1 200642Z 09003KT M02/M06 A3037 RMK A01 T10181061  RH  073%=      5-min Rain = 0
KTH1 200643Z 08003KT M02/M06 A3037 RMK A01 T10181061  RH  073%=      5-min Rain = 0
KTH1 200644Z 08004KT M02/M06 A3037 RMK A01 T10181060  RH  073%=      5-min Rain = 0
KTH1 200645Z 08005KT M02/M06 A3037 RMK A01 T10181060  RH  073%=      5-min Rain = 0
KTH1 200646Z 07004KT M02/M06 A3037 RMK A01 T10181060  RH  073%=      5-min Rain = 0
KTH1 200647Z 07003KT M02/M06 A3037 RMK A01 T10181059  RH  073%=      5-min Rain = 0
KTH1 200648Z 06003KT M02/M06 A3037 RMK A01 T10191060  RH  074%=      5-min Rain = 0
KTH1 200649Z 06003KT M02/M06 A3037 RMK A01 T10191060  RH  074%=      5-min Rain = 0
KTH1 200650Z 07003KT M02/M06 A3037 RMK A01 T10201060  RH  074%=      5-min Rain = 0
KTH1 200651Z 06003KT M02/M06 A3037 RMK A01 T10201061  RH  073%=      5-min Rain = 0
KTH1 200652Z 07003KT M02/M06 A3037 RMK A01 T10201061  RH  073%=      5-min Rain = 0
KTH1 200653Z 07003KT M02/M06 A3037 RMK A01 T10201061  RH  073%=      5-min Rain = 0
KTH1 200654Z 07003KT M02/M06 A3037 RMK A01 T10201061  RH  073%=      5-min Rain = 0
KTH1 200655Z 07003KT M02/M06 A3037 RMK A01 T10201060  RH  074%=      5-min Rain = 0
KTH1 200656Z 07003KT M02/M06 A3037 RMK A01 T10201060  RH  074%=      5-min Rain = 0
KTH1 200657Z 07003KT M02/M06 A3037 RMK A01 T10201060  RH  074%=      5-min Rain = 0
KTH1 200658Z 07004KT M02/M06 A3038 RMK A01 T10201060  RH  074%=      5-min Rain = 0
KTH1 200659Z 06003KT M02/M06 A3038 RMK A01 T10211060  RH  074%=      5-min Rain = 0
KTH1 200700Z 06003KT M02/M06 A3038 RMK A01 T10211060  RH  075%=      5-min Rain = 0
KTH1 200701Z 06002KT M02/M06 A3038 RMK A01 T10221061  RH  075%=      5-min Rain = 0
KTH1 200702Z 08002KT M02/M06 A3037 RMK A01 T10221061  RH  074%=      5-min Rain = 0
KTH1 200703Z 10002KT M02/M06 A3037 RMK A01 T10221061  RH  075%=      5-min Rain = 0
KTH1 200704Z 11003KT M02/M06 A3036 RMK A01 T10231061  RH  075%=      5-min Rain = 0
KTH1 200705Z 12003KT M02/M06 A3036 RMK A01 T10231061  RH  075%=      5-min Rain = 0
KTH1 200706Z 13002KT M02/M06 A3036 RMK A01 T10241061  RH  076%=      5-min Rain = 0
KTH1 200707Z 10001KT M02/M06 A3037 RMK A01 T10241061  RH  076%=      5-min Rain = 0
KTH1 200708Z 14001KT M02/M06 A3037 RMK A01 T10241061  RH  076%=      5-min Rain = 0
KTH1 200709Z 12002KT M02/M06 A3037 RMK A01 T10241061  RH  076%=      5-min Rain = 0
KTH1 200710Z 10002KT M02/M06 A3037 RMK A01 T10241062  RH  075%=      5-min Rain = 0
KTH1 200711Z 10003KT M03/M06 A3037 RMK A01 T10251062  RH  075%=      5-min Rain = 0
KTH1 200712Z 09003KT M03/M06 A3037 RMK A01 T10261062  RH  076%=      5-min Rain = 0
KTH1 200713Z 09003KT M03/M06 A3037 RMK A01 T10261061  RH  077%=      5-min Rain = 0
KTH1 200714Z 09003KT M03/M06 A3037 RMK A01 T10261060  RH  077%=      5-min Rain = 0
KTH1 200715Z 10003KT M03/M06 A3037 RMK A01 T10261061  RH  077%=      5-min Rain = 0
KTH1 200716Z 11003KT M03/M06 A3037 RMK A01 T10261061  RH  077%=      5-min Rain = 0
KTH1 200717Z 10003KT M03/M06 A3037 RMK A01 T10261061  RH  077%=      5-min Rain = 0
KTH1 200718Z 09002KT M03/M06 A3037 RMK A01 T10261061  RH  077%=      5-min Rain = 0
KTH1 200719Z 09002KT M03/M06 A3037 RMK A01 T10261061  RH  076%=      5-min Rain = 0
KTH1 200720Z 09001KT M03/M06 A3037 RMK A01 T10261062  RH  076%=      5-min Rain = 0
KTH1 200721Z 11001KT M03/M06 A3037 RMK A01 T10261062  RH  076%=      5-min Rain = 0
KTH1 200722Z 09002KT M03/M06 A3037 RMK A01 T10261063  RH  076%=      5-min Rain = 0
KTH1 200723Z 08002KT M03/M06 A3037 RMK A01 T10261063  RH  076%=      5-min Rain = 0
KTH1 200724Z 09002KT M03/M06 A3037 RMK A01 T10271063  RH  076%=      5-min Rain = 0
KTH1 200725Z 08001KT M03/M06 A3037 RMK A01 T10271063  RH  076%=      5-min Rain = 0
KTH1 200726Z 07002KT M03/M06 A3037 RMK A01 T10271063  RH  076%=      5-min Rain = 0
KTH1 200727Z 07002KT M03/M06 A3037 RMK A01 T10271063  RH  076%=      5-min Rain = 0
KTH1 200728Z 06002KT M03/M06 A3037 RMK A01 T10271063  RH  076%=      5-min Rain = 0
KTH1 200729Z 07003KT M03/M06 A3037 RMK A01 T10271063  RH  076%=      5-min Rain = 0
KTH1 200730Z 08002KT M03/M06 A3038 RMK A01 T10261063  RH  076%=      5-min Rain = 0
KTH1 200731Z 08002KT M03/M06 A3038 RMK A01 T10251062  RH  076%=      5-min Rain = 0
KTH1 200732Z 09002KT M03/M06 A3037 RMK A01 T10251062  RH  076%=      5-min Rain = 0
KTH1 200733Z 08003KT M03/M06 A3037 RMK A01 T10251062  RH  075%=      5-min Rain = 0
KTH1 200734Z 09002KT M02/M06 A3038 RMK A01 T10241062  RH  075%=      5-min Rain = 0
KTH1 200735Z 09001KT M02/M06 A3038 RMK A01 T10241062  RH  075%=      5-min Rain = 0
KTH1 200736Z 10002KT M02/M06 A3038 RMK A01 T10241063  RH  075%=      5-min Rain = 0
KTH1 200737Z 08001KT M02/M06 A3038 RMK A01 T10241063  RH  074%=      5-min Rain = 0
KTH1 200738Z 08002KT M02/M06 A3037 RMK A01 T10241063  RH  074%=      5-min Rain = 0
KTH1 200739Z 08003KT M02/M06 A3037 RMK A01 T10241063  RH  075%=      5-min Rain = 0
KTH1 200740Z 08003KT M02/M06 A3037 RMK A01 T10241063  RH  075%=      5-min Rain = 0
KTH1 200741Z 09002KT M03/M06 A3037 RMK A01 T10251062  RH  075%=      5-min Rain = 0
KTH1 200742Z 09003KT M02/M06 A3036 RMK A01 T10241062  RH  075%=      5-min Rain = 0
KTH1 200743Z 09003KT M02/M06 A3036 RMK A01 T10241062  RH  075%=      5-min Rain = 0
KTH1 200744Z 09003KT M02/M06 A3036 RMK A01 T10241062  RH  075%=      5-min Rain = 0
KTH1 200745Z 10003KT M02/M06 A3036 RMK A01 T10241060  RH  076%=      5-min Rain = 0
KTH1 200746Z 09004KT M03/M06 A3036 RMK A01 T10251059  RH  078%=      5-min Rain = 0
KTH1 200747Z 09003KT M03/M06 A3037 RMK A01 T10261059  RH  078%=      5-min Rain = 0
KTH1 200748Z 10002KT M03/M06 A3037 RMK A01 T10261060  RH  078%=      5-min Rain = 0
KTH1 200749Z 10002KT M03/M06 A3037 RMK A01 T10271060  RH  078%=      5-min Rain = 0
KTH1 200750Z 09002KT M03/M06 A3037 RMK A01 T10281061  RH  078%=      5-min Rain = 0
KTH1 200751Z 08002KT M03/M06 A3037 RMK A01 T10281062  RH  077%=      5-min Rain = 0
KTH1 200752Z 08002KT M03/M06 A3037 RMK A01 T10281062  RH  077%=      5-min Rain = 0
KTH1 200753Z 08003KT M03/M06 A3037 RMK A01 T10281062  RH  077%=      5-min Rain = 0
KTH1 200754Z 08003KT M03/M06 A3037 RMK A01 T10281061  RH  078%=      5-min Rain = 0
KTH1 200755Z 09003KT M03/M06 A3037 RMK A01 T10281061  RH  078%=      5-min Rain = 0
KTH1 200756Z 10002KT M03/M06 A3036 RMK A01 T10281061  RH  078%=      5-min Rain = 0
KTH1 200757Z 11002KT M03/M06 A3036 RMK A01 T10281061  RH  078%=      5-min Rain = 0
KTH1 200758Z 11002KT M03/M06 A3036 RMK A01 T10281062  RH  078%=      5-min Rain = 0
KTH1 200759Z 11002KT M03/M06 A3036 RMK A01 T10291062  RH  078%=      5-min Rain = 0
KTH1 200800Z 12003KT M03/M06 A3036 RMK A01 T10281062  RH  078%=      5-min Rain = 0
KTH1 200801Z 11004KT M03/M06 A3036 RMK A01 T10291062  RH  078%=      5-min Rain = 0
KTH1 200802Z 11003KT M03/M06 A3036 RMK A01 T10291062  RH  077%=      5-min Rain = 0
KTH1 200803Z 11003KT M03/M06 A3036 RMK A01 T10291063  RH  077%=      5-min Rain = 0
KTH1 200804Z 10003KT M03/M06 A3036 RMK A01 T10281063  RH  077%=      5-min Rain = 0
KTH1 200805Z 10003KT M03/M06 A3036 RMK A01 T10291063  RH  077%=      5-min Rain = 0
KTH1 200806Z 11003KT M03/M06 A3036 RMK A01 T10291063  RH  077%=      5-min Rain = 0
KTH1 200807Z 10003KT M03/M06 A3036 RMK A01 T10291063  RH  077%=      5-min Rain = 0
KTH1 200808Z 10003KT M03/M06 A3036 RMK A01 T10281063  RH  077%=      5-min Rain = 0
KTH1 200809Z 10002KT M03/M06 A3036 RMK A01 T10281063  RH  077%=      5-min Rain = 0
KTH1 200810Z 10003KT M03/M06 A3036 RMK A01 T10281062  RH  077%=      5-min Rain = 0
KTH1 200811Z 09002KT M03/M06 A3037 RMK A01 T10291062  RH  078%=      5-min Rain = 0
KTH1 200812Z 09003KT M03/M06 A3037 RMK A01 T10291062  RH  078%=      5-min Rain = 0
KTH1 200813Z 08003KT M03/M06 A3037 RMK A01 T10291062  RH  078%=      5-min Rain = 0
KTH1 200814Z 09003KT M03/M06 A3036 RMK A01 T10291061  RH  079%=      5-min Rain = 0
KTH1 200815Z 09003KT M03/M06 A3036 RMK A01 T10291060  RH  079%=      5-min Rain = 0
KTH1 200816Z 08003KT M03/M06 A3037 RMK A01 T10301060  RH  080%=      5-min Rain = 0
KTH1 200817Z 08003KT M03/M06 A3037 RMK A01 T10301060  RH  080%=      5-min Rain = 0
KTH1 200818Z 08002KT M03/M06 A3037 RMK A01 T10311061  RH  080%=      5-min Rain = 0
KTH1 200819Z 08002KT M03/M06 A3037 RMK A01 T10311062  RH  079%=      5-min Rain = 0
KTH1 200820Z 08002KT M03/M06 A3037 RMK A01 T10311062  RH  079%=      5-min Rain = 0
KTH1 200821Z 08001KT M03/M06 A3037 RMK A01 T10311062  RH  079%=      5-min Rain = 0
KTH1 200822Z 06002KT M03/M06 A3037 RMK A01 T10321062  RH  079%=      5-min Rain = 0
KTH1 200823Z 05002KT M03/M06 A3037 RMK A01 T10321062  RH  080%=      5-min Rain = 0
KTH1 200824Z 04001KT M03/M06 A3037 RMK A01 T10321062  RH  080%=      5-min Rain = 0
KTH1 200825Z 04001KT M03/M06 A3037 RMK A01 T10321062  RH  079%=      5-min Rain = 0
KTH1 200826Z 04001KT M03/M06 A3037 RMK A01 T10321063  RH  079%=      5-min Rain = 0
KTH1 200827Z 04001KT M03/M06 A3037 RMK A01 T10321063  RH  079%=      5-min Rain = 0
KTH1 200828Z 05000KT M03/M06 A3037 RMK A01 T10321063  RH  079%=      5-min Rain = 0
KTH1 200829Z 00000KT M03/M06 A3038 RMK A01 T10321063  RH  079%=      5-min Rain = 0
KTH1 200830Z 00000KT M03/M06 A3038 RMK A01 T10321063  RH  079%=      5-min Rain = 0
KTH1 200831Z 05000KT M03/M06 A3038 RMK A01 T10311063  RH  078%=      5-min Rain = 0
KTH1 200832Z 18001KT M03/M06 A3038 RMK A01 T10311063  RH  078%=      5-min Rain = 0
KTH1 200833Z 20001KT M03/M06 A3038 RMK A01 T10311064  RH  078%=      5-min Rain = 0
KTH1 200834Z 19002KT M03/M06 A3038 RMK A01 T10311063  RH  078%=      5-min Rain = 0
KTH1 200835Z 19002KT M03/M06 A3037 RMK A01 T10301063  RH  078%=      5-min Rain = 0
KTH1 200836Z 18002KT M03/M06 A3037 RMK A01 T10311064  RH  078%=      5-min Rain = 0
KTH1 200837Z 18002KT M03/M06 A3037 RMK A01 T10311064  RH  078%=      5-min Rain = 0
KTH1 200838Z 15001KT M03/M06 A3038 RMK A01 T10311064  RH  078%=      5-min Rain = 0
KTH1 200839Z 15001KT M03/M07 A3038 RMK A01 T10321065  RH  078%=      5-min Rain = 0
KTH1 200840Z 17002KT M03/M07 A3038 RMK A01 T10321065  RH  078%=      5-min Rain = 0
KTH1 200841Z 18002KT M03/M06 A3037 RMK A01 T10311064  RH  078%=      5-min Rain = 0
KTH1 200842Z 19002KT M03/M07 A3037 RMK A01 T10311065  RH  077%=      5-min Rain = 0
KTH1 200843Z 19002KT M03/M07 A3037 RMK A01 T10301065  RH  077%=      5-min Rain = 0
KTH1 200844Z 19002KT M03/M07 A3037 RMK A01 T10301065  RH  077%=      5-min Rain = 0
KTH1 200845Z 19002KT M03/M07 A3037 RMK A01 T10301065  RH  077%=      5-min Rain = 0
KTH1 200846Z 18002KT M03/M07 A3037 RMK A01 T10301065  RH  077%=      5-min Rain = 0
KTH1 200847Z 19002KT M03/M07 A3037 RMK A01 T10301066  RH  077%=      5-min Rain = 0
KTH1 200848Z 19002KT M03/M07 A3037 RMK A01 T10301066  RH  077%=      5-min Rain = 0
KTH1 200849Z 19002KT M03/M07 A3037 RMK A01 T10301065  RH  077%=      5-min Rain = 0
KTH1 200850Z 17002KT M03/M07 A3037 RMK A01 T10311066  RH  077%=      5-min Rain = 0
KTH1 200851Z 17003KT M03/M07 A3037 RMK A01 T10311066  RH  077%=      5-min Rain = 0
KTH1 200852Z 18003KT M03/M07 A3037 RMK A01 T10311066  RH  077%=      5-min Rain = 0
KTH1 200853Z 19004KT M03/M07 A3037 RMK A01 T10311066  RH  077%=      5-min Rain = 0
KTH1 200854Z 19003KT M03/M07 A3037 RMK A01 T10311066  RH  077%=      5-min Rain = 0
KTH1 200855Z 19003KT M03/M07 A3037 RMK A01 T10311066  RH  077%=      5-min Rain = 0
KTH1 200856Z 19003KT M03/M07 A3037 RMK A01 T10321067  RH  077%=      5-min Rain = 0
KTH1 200857Z 19003KT M03/M07 A3037 RMK A01 T10321066  RH  077%=      5-min Rain = 0
KTH1 200858Z 19003KT M03/M07 A3037 RMK A01 T10321066  RH  077%=      5-min Rain = 0
KTH1 200859Z 18003KT M03/M07 A3037 RMK A01 T10321066  RH  077%=      5-min Rain = 0
KTH1 200900Z 19004KT M03/M07 A3037 RMK A01 T10321066  RH  077%=      5-min Rain = 0
KTH1 200901Z 19004KT M03/M07 A3037 RMK A01 T10321067  RH  077%=      5-min Rain = 0
KTH1 200902Z 18003KT M03/M07 A3037 RMK A01 T10321066  RH  077%=      5-min Rain = 0
KTH1 200903Z 18003KT M03/M07 A3037 RMK A01 T10321066  RH  077%=      5-min Rain = 0
KTH1 200904Z 18003KT M03/M07 A3037 RMK A01 T10321067  RH  077%=      5-min Rain = 0
KTH1 200905Z 17003KT M03/M07 A3037 RMK A01 T10331067  RH  077%=      5-min Rain = 0
KTH1 200906Z 16003KT M03/M07 A3037 RMK A01 T10331066  RH  077%=      5-min Rain = 0
KTH1 200907Z 15002KT M03/M07 A3037 RMK A01 T10321066  RH  078%=      5-min Rain = 0
KTH1 200908Z 16002KT M03/M07 A3037 RMK A01 T10321066  RH  077%=      5-min Rain = 0
KTH1 200909Z 15002KT M03/M07 A3037 RMK A01 T10311066  RH  077%=      5-min Rain = 0
KTH1 200910Z 15002KT M03/M07 A3037 RMK A01 T10311065  RH  077%=      5-min Rain = 0
KTH1 200911Z 14002KT M03/M07 A3037 RMK A01 T10311065  RH  078%=      5-min Rain = 0
KTH1 200912Z 15002KT M03/M07 A3037 RMK A01 T10311065  RH  078%=      5-min Rain = 0
KTH1 200913Z 17001KT M03/M07 A3037 RMK A01 T10311066  RH  077%=      5-min Rain = 0
KTH1 200914Z 15001KT M03/M07 A3037 RMK A01 T10301066  RH  076%=      5-min Rain = 0
KTH1 200915Z 14002KT M03/M07 A3037 RMK A01 T10301066  RH  076%=      5-min Rain = 0
KTH1 200916Z 15001KT M03/M07 A3037 RMK A01 T10301066  RH  076%=      5-min Rain = 0
KTH1 200917Z 14001KT M03/M07 A3037 RMK A01 T10311066  RH  077%=      5-min Rain = 0
KTH1 200918Z 14001KT M03/M07 A3037 RMK A01 T10311066  RH  077%=      5-min Rain = 0
KTH1 200919Z 17001KT M03/M07 A3037 RMK A01 T10311066  RH  077%=      5-min Rain = 0
KTH1 200920Z 19002KT M03/M07 A3037 RMK A01 T10321066  RH  077%=      5-min Rain = 0
KTH1 200921Z 20002KT M03/M07 A3038 RMK A01 T10311066  RH  077%=      5-min Rain = 0
KTH1 200922Z 21002KT M03/M07 A3038 RMK A01 T10301067  RH  076%=      5-min Rain = 0
KTH1 200923Z 20002KT M03/M07 A3038 RMK A01 T10301067  RH  076%=      5-min Rain = 0
KTH1 200924Z 18001KT M03/M07 A3038 RMK A01 T10301067  RH  075%=      5-min Rain = 0
KTH1 200925Z 15001KT M03/M07 A3038 RMK A01 T10301068  RH  075%=      5-min Rain = 0
KTH1 200926Z 13001KT M03/M07 A3038 RMK A01 T10301068  RH  075%=      5-min Rain = 0
KTH1 200927Z 13001KT M03/M07 A3038 RMK A01 T10301068  RH  075%=      5-min Rain = 0
KTH1 200928Z 14001KT M03/M07 A3038 RMK A01 T10291067  RH  075%=      5-min Rain = 0
KTH1 200929Z 14001KT M03/M07 A3037 RMK A01 T10301067  RH  075%=      5-min Rain = 0
KTH1 200930Z 14001KT M03/M07 A3038 RMK A01 T10301066  RH  076%=      5-min Rain = 0
KTH1 200931Z 15001KT M03/M07 A3038 RMK A01 T10301065  RH  077%=      5-min Rain = 0
KTH1 200932Z 15001KT M03/M07 A3038 RMK A01 T10311065  RH  077%=      5-min Rain = 0
KTH1 200933Z 15001KT M03/M07 A3038 RMK A01 T10311065  RH  077%=      5-min Rain = 0
KTH1 200934Z 15001KT M03/M07 A3038 RMK A01 T10311067  RH  076%=      5-min Rain = 0
KTH1 200935Z 15001KT M03/M07 A3038 RMK A01 T10311067  RH  076%=      5-min Rain = 0
KTH1 200936Z 15001KT M03/M07 A3038 RMK A01 T10301067  RH  076%=      5-min Rain = 0
KTH1 200937Z 15001KT M03/M07 A3038 RMK A01 T10311068  RH  076%=      5-min Rain = 0
KTH1 200938Z 13001KT M03/M07 A3038 RMK A01 T10311068  RH  076%=      5-min Rain = 0
KTH1 200939Z 11001KT M03/M07 A3038 RMK A01 T10311067  RH  076%=      5-min Rain = 0
KTH1 200940Z 10001KT M03/M07 A3038 RMK A01 T10311067  RH  076%=      5-min Rain = 0
KTH1 200941Z 09001KT M03/M07 A3038 RMK A01 T10311067  RH  076%=      5-min Rain = 0
KTH1 200942Z 09000KT M03/M07 A3038 RMK A01 T10311067  RH  076%=      5-min Rain = 0
KTH1 200943Z 00000KT M03/M07 A3038 RMK A01 T10311067  RH  076%=      5-min Rain = 0
KTH1 200944Z 00000KT M03/M07 A3038 RMK A01 T10321067  RH  077%=      5-min Rain = 0
KTH1 200945Z 00000KT M03/M07 A3038 RMK A01 T10321066  RH  077%=      5-min Rain = 0
KTH1 200946Z 00000KT M03/M07 A3038 RMK A01 T10311066  RH  077%=      5-min Rain = 0
KTH1 200947Z 09000KT M03/M07 A3038 RMK A01 T10321067  RH  076%=      5-min Rain = 0
KTH1 200948Z 09001KT M03/M07 A3037 RMK A01 T10321068  RH  076%=      5-min Rain = 0
KTH1 200949Z 09001KT M03/M07 A3037 RMK A01 T10321068  RH  076%=      5-min Rain = 0
KTH1 200950Z 09001KT M03/M07 A3037 RMK A01 T10321068  RH  076%=      5-min Rain = 0
KTH1 200951Z 09001KT M03/M07 A3037 RMK A01 T10331068  RH  077%=      5-min Rain = 0
KTH1 200952Z 10001KT M03/M07 A3038 RMK A01 T10331068  RH  077%=      5-min Rain = 0
KTH1 200953Z 10000KT M03/M07 A3038 RMK A01 T10331068  RH  077%=      5-min Rain = 0
KTH1 200954Z 00000KT M03/M07 A3038 RMK A01 T10341068  RH  077%=      5-min Rain = 0
KTH1 200955Z 00000KT M03/M07 A3038 RMK A01 T10331068  RH  077%=      5-min Rain = 0
KTH1 200956Z 00000KT M03/M07 A3038 RMK A01 T10331069  RH  076%=      5-min Rain = 0
KTH1 200957Z 00000KT M03/M07 A3038 RMK A01 T10331069  RH  076%=      5-min Rain = 0
KTH1 200958Z 00000KT M03/M07 A3038 RMK A01 T10331069  RH  076%=      5-min Rain = 0
KTH1 200959Z 00000KT M03/M07 A3038 RMK A01 T10331068  RH  077%=      5-min Rain = 0
KTH1 201000Z 00000KT M03/M07 A3037 RMK A01 T10331068  RH  077%=      5-min Rain = 0
KTH1 201001Z 00000KT M03/M07 A3037 RMK A01 T10331068  RH  077%=      5-min Rain = 0
KTH1 201002Z 00000KT M03/M07 A3037 RMK A01 T10331069  RH  076%=      5-min Rain = 0
KTH1 201003Z 00000KT M03/M07 A3037 RMK A01 T10321069  RH  076%=      5-min Rain = 0
KTH1 201004Z 00000KT M03/M07 A3038 RMK A01 T10331070  RH  075%=      5-min Rain = 0
KTH1 201005Z 00000KT M03/M07 A3038 RMK A01 T10321070  RH  075%=      5-min Rain = 0
KTH1 201006Z 00000KT M03/M07 A3038 RMK A01 T10311070  RH  074%=      5-min Rain = 0
KTH1 201007Z 00000KT M03/M07 A3038 RMK A01 T10291069  RH  074%=      5-min Rain = 0
KTH1 201008Z 00000KT M03/M07 A3038 RMK A01 T10281069  RH  073%=      5-min Rain = 0
KTH1 201009Z 00000KT M03/M07 A3038 RMK A01 T10281069  RH  073%=      5-min Rain = 0
KTH1 201010Z 00000KT M03/M07 A3037 RMK A01 T10271070  RH  073%=      5-min Rain = 0
KTH1 201011Z 00000KT M03/M07 A3037 RMK A01 T10271070  RH  072%=      5-min Rain = 0
KTH1 201012Z 23000KT M03/M07 A3037 RMK A01 T10271071  RH  072%=      5-min Rain = 0
KTH1 201013Z 24002KT M03/M07 A3037 RMK A01 T10281069  RH  073%=      5-min Rain = 0
KTH1 201014Z 24003KT M03/M07 A3037 RMK A01 T10291066  RH  075%=      5-min Rain = 0
KTH1 201015Z 24004KT M03/M06 A3037 RMK A01 T10301063  RH  078%=      5-min Rain = 0
KTH1 201016Z 24004KT M03/M06 A3037 RMK A01 T10311062  RH  079%=      5-min Rain = 0
KTH1 201017Z 23004KT M03/M06 A3037 RMK A01 T10321061  RH  080%=      5-min Rain = 0
KTH1 201018Z 23004KT M03/M06 A3037 RMK A01 T10341061  RH  081%=      5-min Rain = 0
KTH1 201019Z 23004KT M04/M06 A3037 RMK A01 T10351061  RH  082%=      5-min Rain = 0
KTH1 201020Z 23004KT M04/M06 A3037 RMK A01 T10361061  RH  083%=      5-min Rain = 0
KTH1 201021Z 23004KT M04/M06 A3037 RMK A01 T10371061  RH  083%=      5-min Rain = 0
KTH1 201022Z 23004KT M04/M06 A3037 RMK A01 T10381062  RH  084%=      5-min Rain = 0
KTH1 201023Z 23004KT M04/M06 A3037 RMK A01 T10381061  RH  084%=      5-min Rain = 0
KTH1 201024Z 23004KT M04/M06 A3037 RMK A01 T10391062  RH  084%=      5-min Rain = 0
KTH1 201025Z 23003KT M04/M06 A3037 RMK A01 T10391062  RH  084%=      5-min Rain = 0
KTH1 201026Z 23003KT M04/M06 A3037 RMK A01 T10381062  RH  084%=      5-min Rain = 0
KTH1 201027Z 23004KT M04/M06 A3037 RMK A01 T10391063  RH  083%=      5-min Rain = 0
KTH1 201028Z 23003KT M04/M06 A3037 RMK A01 T10381063  RH  083%=      5-min Rain = 0
KTH1 201029Z 22003KT M04/M06 A3037 RMK A01 T10381063  RH  083%=      5-min Rain = 0
KTH1 201030Z 22003KT M04/M06 A3037 RMK A01 T10391063  RH  083%=      5-min Rain = 0
KTH1 201031Z 22003KT M04/M06 A3037 RMK A01 T10391064  RH  083%=      5-min Rain = 0
KTH1 201032Z 22002KT M04/M06 A3037 RMK A01 T10401064  RH  083%=      5-min Rain = 0
KTH1 201033Z 22002KT M04/M06 A3037 RMK A01 T10401064  RH  083%=      5-min Rain = 0
KTH1 201034Z 22002KT M04/M06 A3037 RMK A01 T10401064  RH  084%=      5-min Rain = 0
KTH1 201035Z 22003KT M04/M06 A3037 RMK A01 T10401064  RH  084%=      5-min Rain = 0
KTH1 201036Z 23003KT M04/M06 A3037 RMK A01 T10411064  RH  084%=      5-min Rain = 0
KTH1 201037Z 23004KT M04/M06 A3037 RMK A01 T10411063  RH  084%=      5-min Rain = 0
KTH1 201038Z 23003KT M04/M06 A3037 RMK A01 T10411063  RH  084%=      5-min Rain = 0
KTH1 201039Z 21002KT M04/M06 A3037 RMK A01 T10411064  RH  084%=      5-min Rain = 0
KTH1 201040Z 21002KT M04/M06 A3037 RMK A01 T10421064  RH  084%=      5-min Rain = 0
KTH1 201041Z 22002KT M04/M06 A3037 RMK A01 T10421064  RH  085%=      5-min Rain = 0
KTH1 201042Z 21002KT M04/M06 A3037 RMK A01 T10431064  RH  085%=      5-min Rain = 0
KTH1 201043Z 21002KT M04/M06 A3037 RMK A01 T10431064  RH  085%=      5-min Rain = 0
KTH1 201044Z 21003KT M04/M06 A3036 RMK A01 T10441064  RH  086%=      5-min Rain = 0
KTH1 201045Z 21003KT M04/M06 A3036 RMK A01 T10441064  RH  086%=      5-min Rain = 0
KTH1 201046Z 21003KT M05/M06 A3036 RMK A01 T10451064  RH  086%=      5-min Rain = 0
KTH1 201047Z 22004KT M05/M06 A3036 RMK A01 T10451064  RH  087%=      5-min Rain = 0
KTH1 201048Z 22004KT M05/M06 A3036 RMK A01 T10451064  RH  087%=      5-min Rain = 0
KTH1 201049Z 23004KT M05/M06 A3036 RMK A01 T10461064  RH  087%=      5-min Rain = 0
KTH1 201050Z 23004KT M05/M06 A3036 RMK A01 T10461064  RH  087%=      5-min Rain = 0
KTH1 201051Z 22004KT M05/M06 A3036 RMK A01 T10461063  RH  088%=      5-min Rain = 0
KTH1 201052Z 22004KT M05/M06 A3036 RMK A01 T10451063  RH  088%=      5-min Rain = 0
KTH1 201053Z 22004KT M04/M06 A3036 RMK A01 T10441062  RH  087%=      5-min Rain = 0
KTH1 201054Z 22004KT M04/M06 A3036 RMK A01 T10441063  RH  087%=      5-min Rain = 0
KTH1 201055Z 22004KT M04/M06 A3036 RMK A01 T10421063  RH  086%=      5-min Rain = 0
KTH1 201056Z 22003KT M04/M06 A3036 RMK A01 T10421063  RH  085%=      5-min Rain = 0
KTH1 201057Z 23003KT M04/M06 A3036 RMK A01 T10411064  RH  084%=      5-min Rain = 0
KTH1 201058Z 24002KT M04/M06 A3036 RMK A01 T10401064  RH  083%=      5-min Rain = 0
KTH1 201059Z 24003KT M04/M06 A3036 RMK A01 T10401064  RH  083%=      5-min Rain = 0
KTH1 201100Z 24003KT M04/M06 A3036 RMK A01 T10391064  RH  083%=      5-min Rain = 0
KTH1 201101Z 24003KT M04/M06 A3036 RMK A01 T10381063  RH  083%=      5-min Rain = 0
KTH1 201102Z 23003KT M04/M06 A3036 RMK A01 T10371061  RH  083%=      5-min Rain = 0
KTH1 201103Z 22003KT M04/M06 A3036 RMK A01 T10371063  RH  082%=      5-min Rain = 0
KTH1 201104Z 22002KT M04/M06 A3036 RMK A01 T10371064  RH  082%=      5-min Rain = 0
KTH1 201105Z 22002KT M04/M06 A3036 RMK A01 T10371064  RH  082%=      5-min Rain = 0
KTH1 201106Z 22002KT M04/M06 A3036 RMK A01 T10371064  RH  082%=      5-min Rain = 0
KTH1 201107Z 22002KT M04/M07 A3036 RMK A01 T10371065  RH  082%=      5-min Rain = 0
KTH1 201108Z 22002KT M04/M07 A3036 RMK A01 T10381065  RH  082%=      5-min Rain = 0
KTH1 201109Z 22002KT M04/M07 A3036 RMK A01 T10381065  RH  082%=      5-min Rain = 0
KTH1 201110Z 21002KT M04/M07 A3036 RMK A01 T10391065  RH  082%=      5-min Rain = 0
KTH1 201111Z 20002KT M04/M07 A3036 RMK A01 T10391065  RH  082%=      5-min Rain = 0
KTH1 201112Z 19002KT M04/M07 A3036 RMK A01 T10391065  RH  082%=      5-min Rain = 0
KTH1 201113Z 19003KT M04/M07 A3035 RMK A01 T10401065  RH  083%=      5-min Rain = 0
KTH1 201114Z 19003KT M04/M07 A3035 RMK A01 T10411065  RH  084%=      5-min Rain = 0
KTH1 201115Z 19003KT M04/M06 A3035 RMK A01 T10421064  RH  084%=      5-min Rain = 0
KTH1 201116Z 21003KT M04/M06 A3035 RMK A01 T10421064  RH  085%=      5-min Rain = 0
KTH1 201117Z 21004KT M04/M06 A3035 RMK A01 T10431063  RH  085%=      5-min Rain = 0
KTH1 201118Z 21004KT M04/M06 A3035 RMK A01 T10431063  RH  086%=      5-min Rain = 0
KTH1 201119Z 21005KT M04/M06 A3035 RMK A01 T10431063  RH  086%=      5-min Rain = 0
KTH1 201120Z 21005KT M04/M06 A3035 RMK A01 T10431062  RH  087%=      5-min Rain = 0
KTH1 201121Z 21005KT M04/M06 A3035 RMK A01 T10431062  RH  086%=      5-min Rain = 0
KTH1 201122Z 21004KT M04/M06 A3035 RMK A01 T10421062  RH  086%=      5-min Rain = 0
KTH1 201123Z 21005KT M04/M06 A3035 RMK A01 T10421063  RH  085%=      5-min Rain = 0
KTH1 201124Z 21005KT M04/M06 A3036 RMK A01 T10411064  RH  084%=      5-min Rain = 0
KTH1 201125Z 21005KT M04/M06 A3035 RMK A01 T10401064  RH  083%=      5-min Rain = 0
KTH1 201126Z 22005KT M04/M07 A3035 RMK A01 T10391065  RH  082%=      5-min Rain = 0
KTH1 201127Z 22005KT M04/M07 A3035 RMK A01 T10381065  RH  082%=      5-min Rain = 0
KTH1 201128Z 22004KT M04/M07 A3035 RMK A01 T10381065  RH  081%=      5-min Rain = 0
KTH1 201129Z 22005KT M04/M07 A3035 RMK A01 T10371065  RH  081%=      5-min Rain = 0
KTH1 201130Z 22005KT M04/M07 A3035 RMK A01 T10371065  RH  081%=      5-min Rain = 0
KTH1 201131Z 22005KT M04/M07 A3035 RMK A01 T10361065  RH  081%=      5-min Rain = 0
KTH1 201132Z 22005KT M04/M07 A3035 RMK A01 T10371065  RH  081%=      5-min Rain = 0
KTH1 201133Z 21005KT M04/M07 A3035 RMK A01 T10371065  RH  081%=      5-min Rain = 0
KTH1 201134Z 21005KT M04/M07 A3035 RMK A01 T10371065  RH  081%=      5-min Rain = 0
KTH1 201135Z 21005KT M04/M07 A3035 RMK A01 T10371065  RH  081%=      5-min Rain = 0
KTH1 201136Z 21005KT M04/M07 A3035 RMK A01 T10371065  RH  081%=      5-min Rain = 0
KTH1 201137Z 21005KT M04/M07 A3035 RMK A01 T10371066  RH  080%=      5-min Rain = 0
KTH1 201138Z 21005KT M04/M07 A3035 RMK A01 T10361066  RH  080%=      5-min Rain = 0
KTH1 201139Z 21005KT M04/M07 A3035 RMK A01 T10371066  RH  080%=      5-min Rain = 0
KTH1 201140Z 21005KT M04/M07 A3035 RMK A01 T10371066  RH  080%=      5-min Rain = 0
KTH1 201141Z 20005KT M04/M07 A3035 RMK A01 T10381066  RH  081%=      5-min Rain = 0
KTH1 201142Z 20005KT M04/M07 A3035 RMK A01 T10391066  RH  082%=      5-min Rain = 0
KTH1 201143Z 21005KT M04/M07 A3035 RMK A01 T10391065  RH  082%=      5-min Rain = 0
KTH1 201144Z 21005KT M04/M07 A3035 RMK A01 T10401065  RH  083%=      5-min Rain = 0
KTH1 201145Z 21005KT M04/M07 A3035 RMK A01 T10411065  RH  083%=      5-min Rain = 0
KTH1 201146Z 21005KT M04/M07 A3035 RMK A01 T10411065  RH  083%=      5-min Rain = 0
KTH1 201147Z 21005KT M04/M07 A3035 RMK A01 T10411065  RH  084%=      5-min Rain = 0
KTH1 201148Z 21005KT M04/M07 A3036 RMK A01 T10411065  RH  084%=      5-min Rain = 0
KTH1 201149Z 21005KT M04/M07 A3036 RMK A01 T10411065  RH  083%=      5-min Rain = 0
KTH1 201150Z 21005KT M04/M07 A3036 RMK A01 T10411065  RH  083%=      5-min Rain = 0
KTH1 201151Z 21004KT M04/M07 A3035 RMK A01 T10411065  RH  083%=      5-min Rain = 0
KTH1 201152Z 22004KT M04/M07 A3035 RMK A01 T10411065  RH  083%=      5-min Rain = 0
KTH1 201153Z 22004KT M04/M07 A3035 RMK A01 T10411066  RH  083%=      5-min Rain = 0
KTH1 201154Z 21004KT M04/M07 A3035 RMK A01 T10411066  RH  083%=      5-min Rain = 0
KTH1 201155Z 21004KT M04/M07 A3036 RMK A01 T10411066  RH  083%=      5-min Rain = 0
KTH1 201156Z 21004KT M04/M07 A3036 RMK A01 T10401066  RH  083%=      5-min Rain = 0
KTH1 201157Z 21004KT M04/M07 A3036 RMK A01 T10401066  RH  082%=      5-min Rain = 0
KTH1 201158Z 21004KT M04/M07 A3036 RMK A01 T10401066  RH  082%=      5-min Rain = 0
KTH1 201159Z 20004KT M04/M07 A3036 RMK A01 T10411066  RH  083%=      5-min Rain = 0
KTH1 201200Z 20004KT M04/M07 A3036 RMK A01 T10421066  RH  083%=      5-min Rain = 0
KTH1 201201Z 20004KT M04/M07 A3036 RMK A01 T10421066  RH  083%=      5-min Rain = 0
KTH1 201202Z 20004KT M04/M07 A3036 RMK A01 T10421066  RH  084%=      5-min Rain = 0
KTH1 201203Z 20004KT M04/M07 A3036 RMK A01 T10431066  RH  084%=      5-min Rain = 0
KTH1 201204Z 20004KT M04/M07 A3036 RMK A01 T10431065  RH  084%=      5-min Rain = 0
KTH1 201205Z 21005KT M04/M07 A3036 RMK A01 T10431066  RH  084%=      5-min Rain = 0
KTH1 201206Z 21005KT M04/M07 A3035 RMK A01 T10441066  RH  085%=      5-min Rain = 0
KTH1 201207Z 21005KT M04/M07 A3035 RMK A01 T10441066  RH  085%=      5-min Rain = 0
KTH1 201208Z 21005KT M04/M07 A3035 RMK A01 T10441066  RH  085%=      5-min Rain = 0
KTH1 201209Z 21005KT M04/M07 A3035 RMK A01 T10441066  RH  084%=      5-min Rain = 0
KTH1 201210Z 21005KT M04/M07 A3035 RMK A01 T10441066  RH  084%=      5-min Rain = 0
KTH1 201211Z 21005KT M04/M07 A3035 RMK A01 T10431066  RH  084%=      5-min Rain = 0
KTH1 201212Z 21005KT M04/M07 A3035 RMK A01 T10431066  RH  084%=      5-min Rain = 0
KTH1 201213Z 21004KT M04/M07 A3035 RMK A01 T10431065  RH  085%=      5-min Rain = 0
KTH1 201214Z 21004KT M04/M07 A3035 RMK A01 T10431065  RH  085%=      5-min Rain = 0
KTH1 201215Z 21005KT M04/M07 A3036 RMK A01 T10431065  RH  085%=      5-min Rain = 0
KTH1 201216Z 21005KT M04/M06 A3036 RMK A01 T10421064  RH  085%=      5-min Rain = 0
KTH1 201217Z 21005KT M04/M06 A3036 RMK A01 T10421064  RH  085%=      5-min Rain = 0
KTH1 201218Z 21005KT M04/M06 A3036 RMK A01 T10411064  RH  084%=      5-min Rain = 0
KTH1 201219Z 22005KT M04/M06 A3036 RMK A01 T10411064  RH  084%=      5-min Rain = 0
KTH1 201220Z 21005KT M04/M06 A3036 RMK A01 T10411064  RH  084%=      5-min Rain = 0
KTH1 201221Z 21005KT M04/M06 A3036 RMK A01 T10421064  RH  084%=      5-min Rain = 0
KTH1 201222Z 22004KT M04/M07 A3036 RMK A01 T10421065  RH  084%=      5-min Rain = 0
KTH1 201223Z 22005KT M04/M07 A3036 RMK A01 T10421065  RH  084%=      5-min Rain = 0
KTH1 201224Z 22005KT M04/M06 A3036 RMK A01 T10411064  RH  084%=      5-min Rain = 0
KTH1 201225Z 22005KT M04/M06 A3036 RMK A01 T10411064  RH  084%=      5-min Rain = 0
KTH1 201226Z 22004KT M04/M06 A3036 RMK A01 T10411064  RH  084%=      5-min Rain = 0
KTH1 201227Z 22003KT M04/M06 A3036 RMK A01 T10401064  RH  084%=      5-min Rain = 0
KTH1 201228Z 22004KT M04/M06 A3036 RMK A01 T10401064  RH  083%=      5-min Rain = 0
KTH1 201229Z 22004KT M04/M06 A3036 RMK A01 T10401064  RH  083%=      5-min Rain = 0
KTH1 201230Z 22005KT M04/M07 A3036 RMK A01 T10401065  RH  083%=      5-min Rain = 0
KTH1 201231Z 22005KT M04/M07 A3036 RMK A01 T10401065  RH  083%=      5-min Rain = 0
KTH1 201232Z 22004KT M04/M06 A3036 RMK A01 T10401064  RH  083%=      5-min Rain = 0
KTH1 201233Z 22004KT M04/M06 A3036 RMK A01 T10401064  RH  083%=      5-min Rain = 0
KTH1 201234Z 21004KT M04/M06 A3036 RMK A01 T10401064  RH  083%=      5-min Rain = 0
KTH1 201235Z 21004KT M04/M06 A3036 RMK A01 T10401064  RH  083%=      5-min Rain = 0
KTH1 201236Z 21005KT M04/M06 A3036 RMK A01 T10401064  RH  083%=      5-min Rain = 0
KTH1 201237Z 21005KT M04/M06 A3036 RMK A01 T10401064  RH  083%=      5-min Rain = 0
KTH1 201238Z 21006KT M04/M07 A3036 RMK A01 T10411065  RH  083%=      5-min Rain = 0
KTH1 201239Z 21006KT M04/M07 A3036 RMK A01 T10421065  RH  084%=      5-min Rain = 0
KTH1 201240Z 20005KT M04/M06 A3035 RMK A01 T10421064  RH  084%=      5-min Rain = 0
KTH1 201241Z 20005KT M04/M06 A3035 RMK A01 T10421064  RH  085%=      5-min Rain = 0
KTH1 201242Z 21005KT M04/M06 A3035 RMK A01 T10431064  RH  085%=      5-min Rain = 0
KTH1 201243Z 21005KT M04/M06 A3035 RMK A01 T10431064  RH  085%=      5-min Rain = 0
KTH1 201244Z 21005KT M04/M06 A3035 RMK A01 T10431064  RH  085%=      5-min Rain = 0
KTH1 201245Z 21006KT M04/M07 A3035 RMK A01 T10431065  RH  085%=      5-min Rain = 0
KTH1 201246Z 22005KT M04/M07 A3035 RMK A01 T10431065  RH  085%=      5-min Rain = 0
KTH1 201247Z 22005KT M04/M07 A3035 RMK A01 T10421065  RH  085%=      5-min Rain = 0
KTH1 201248Z 22005KT M04/M06 A3035 RMK A01 T10421064  RH  085%=      5-min Rain = 0
KTH1 201249Z 22005KT M04/M06 A3035 RMK A01 T10421064  RH  084%=      5-min Rain = 0
KTH1 201250Z 22005KT M04/M06 A3035 RMK A01 T10411064  RH  084%=      5-min Rain = 0
KTH1 201251Z 22005KT M04/M06 A3035 RMK A01 T10411064  RH  084%=      5-min Rain = 0
KTH1 201252Z 22005KT M04/M06 A3035 RMK A01 T10401064  RH  083%=      5-min Rain = 0
KTH1 201253Z 22005KT M04/M07 A3035 RMK A01 T10401065  RH  083%=      5-min Rain = 0
KTH1 201254Z 22005KT M04/M07 A3035 RMK A01 T10401065  RH  083%=      5-min Rain = 0
KTH1 201255Z 22005KT M04/M07 A3035 RMK A01 T10411065  RH  083%=      5-min Rain = 0
KTH1 201256Z 22004KT M04/M07 A3035 RMK A01 T10411065  RH  083%=      5-min Rain = 0
KTH1 201257Z 22004KT M04/M07 A3035 RMK A01 T10401065  RH  083%=      5-min Rain = 0
KTH1 201258Z 22004KT M04/M07 A3035 RMK A01 T10401065  RH  083%=      5-min Rain = 0
KTH1 201259Z 22004KT M04/M07 A3036 RMK A01 T10401065  RH  083%=      5-min Rain = 0
KTH1 201300Z 22003KT M04/M06 A3036 RMK A01 T10401064  RH  083%=      5-min Rain = 0
KTH1 201301Z 22003KT M04/M07 A3036 RMK A01 T10401065  RH  083%=      5-min Rain = 0
KTH1 201302Z 21003KT M04/M07 A3036 RMK A01 T10401065  RH  083%=      5-min Rain = 0
KTH1 201303Z 21003KT M04/M07 A3036 RMK A01 T10401065  RH  083%=      5-min Rain = 0
KTH1 201304Z 21004KT M04/M07 A3036 RMK A01 T10401065  RH  083%=      5-min Rain = 0
KTH1 201305Z 21004KT M04/M07 A3036 RMK A01 T10411065  RH  083%=      5-min Rain = 0
KTH1 201306Z 21004KT M04/M07 A3036 RMK A01 T10411065  RH  083%=      5-min Rain = 0
KTH1 201307Z 20004KT M04/M07 A3036 RMK A01 T10411065  RH  083%=      5-min Rain = 0
KTH1 201308Z 20004KT M04/M07 A3036 RMK A01 T10411065  RH  084%=      5-min Rain = 0
KTH1 201309Z 19003KT M04/M07 A3035 RMK A01 T10421065  RH  084%=      5-min Rain = 0
KTH1 201310Z 18002KT M04/M07 A3035 RMK A01 T10421065  RH  084%=      5-min Rain = 0
KTH1 201311Z 19003KT M04/M07 A3035 RMK A01 T10421065  RH  084%=      5-min Rain = 0
KTH1 201312Z 19003KT M04/M07 A3035 RMK A01 T10421065  RH  084%=      5-min Rain = 0
KTH1 201313Z 19004KT M04/M06 A3035 RMK A01 T10421064  RH  084%=      5-min Rain = 0
KTH1 201314Z 19004KT M04/M07 A3035 RMK A01 T10421065  RH  084%=      5-min Rain = 0
KTH1 201315Z 19004KT M04/M06 A3035 RMK A01 T10421064  RH  085%=      5-min Rain = 0
KTH1 201316Z 19004KT M04/M06 A3035 RMK A01 T10431064  RH  085%=      5-min Rain = 0
KTH1 201317Z 19004KT M04/M06 A3035 RMK A01 T10431064  RH  085%=      5-min Rain = 0
KTH1 201318Z 19004KT M04/M07 A3035 RMK A01 T10431065  RH  085%=      5-min Rain = 0
KTH1 201319Z 19004KT M04/M07 A3035 RMK A01 T10431065  RH  085%=      5-min Rain = 0
KTH1 201320Z 19004KT M04/M06 A3035 RMK A01 T10431064  RH  085%=      5-min Rain = 0
KTH1 201321Z 19004KT M04/M07 A3035 RMK A01 T10441065  RH  085%=      5-min Rain = 0
KTH1 201322Z 20004KT M04/M07 A3035 RMK A01 T10441065  RH  085%=      5-min Rain = 0
KTH1 201323Z 20005KT M04/M07 A3035 RMK A01 T10431065  RH  085%=      5-min Rain = 0
KTH1 201324Z 20005KT M04/M07 A3035 RMK A01 T10441065  RH  085%=      5-min Rain = 0
KTH1 201325Z 20005KT M04/M07 A3035 RMK A01 T10431065  RH  085%=      5-min Rain = 0
KTH1 201326Z 20005KT M04/M07 A3035 RMK A01 T10431065  RH  084%=      5-min Rain = 0
KTH1 201327Z 20004KT M04/M07 A3035 RMK A01 T10431065  RH  084%=      5-min Rain = 0
KTH1 201328Z 20005KT M04/M07 A3035 RMK A01 T10421065  RH  084%=      5-min Rain = 0
KTH1 201329Z 20005KT M04/M07 A3035 RMK A01 T10411065  RH  083%=      5-min Rain = 0
KTH1 201330Z 20005KT M04/M07 A3035 RMK A01 T10411066  RH  083%=      5-min Rain = 0
KTH1 201331Z 20005KT M04/M07 A3035 RMK A01 T10401066  RH  082%=      5-min Rain = 0
KTH1 201332Z 20004KT M04/M07 A3035 RMK A01 T10401066  RH  082%=      5-min Rain = 0
KTH1 201333Z 20004KT M04/M07 A3035 RMK A01 T10401066  RH  082%=      5-min Rain = 0
KTH1 201334Z 21005KT M04/M07 A3035 RMK A01 T10401066  RH  082%=      5-min Rain = 0
KTH1 201335Z 21005KT M04/M07 A3035 RMK A01 T10391066  RH  082%=      5-min Rain = 0
KTH1 201336Z 21006KT M04/M07 A3035 RMK A01 T10391066  RH  082%=      5-min Rain = 0
KTH1 201337Z 22006KT M04/M07 A3035 RMK A01 T10391066  RH  082%=      5-min Rain = 0
KTH1 201338Z 22005KT M04/M07 A3035 RMK A01 T10391066  RH  082%=      5-min Rain = 0
KTH1 201339Z 22005KT M04/M07 A3035 RMK A01 T10391065  RH  082%=      5-min Rain = 0
KTH1 201340Z 22004KT M04/M07 A3035 RMK A01 T10391065  RH  082%=      5-min Rain = 0
KTH1 201341Z 22004KT M04/M07 A3035 RMK A01 T10391065  RH  082%=      5-min Rain = 0
KTH1 201342Z 22005KT M04/M07 A3036 RMK A01 T10391066  RH  082%=      5-min Rain = 0
KTH1 201343Z 22005KT M04/M07 A3036 RMK A01 T10391065  RH  082%=      5-min Rain = 0
KTH1 201344Z 22005KT M04/M07 A3036 RMK A01 T10391066  RH  082%=      5-min Rain = 0
KTH1 201345Z 22005KT M04/M07 A3036 RMK A01 T10391066  RH  082%=      5-min Rain = 0
KTH1 201346Z 23005KT M04/M07 A3035 RMK A01 T10391065  RH  082%=      5-min Rain = 0
KTH1 201347Z 23004KT M04/M07 A3035 RMK A01 T10381065  RH  082%=      5-min Rain = 0
KTH1 201348Z 22004KT M04/M06 A3035 RMK A01 T10381064  RH  082%=      5-min Rain = 0
KTH1 201349Z 23005KT M04/M06 A3035 RMK A01 T10371064  RH  082%=      5-min Rain = 0
KTH1 201350Z 23004KT M04/M06 A3035 RMK A01 T10371064  RH  082%=      5-min Rain = 0
KTH1 201351Z 22004KT M04/M06 A3036 RMK A01 T10371064  RH  081%=      5-min Rain = 0
KTH1 201352Z 23004KT M04/M06 A3036 RMK A01 T10361064  RH  081%=      5-min Rain = 0
KTH1 201353Z 23004KT M04/M07 A3036 RMK A01 T10361065  RH  081%=      5-min Rain = 0
KTH1 201354Z 22004KT M04/M07 A3036 RMK A01 T10361065  RH  080%=      5-min Rain = 0
KTH1 201355Z 23004KT M04/M06 A3036 RMK A01 T10361064  RH  081%=      5-min Rain = 0
KTH1 201356Z 23003KT M04/M06 A3036 RMK A01 T10361064  RH  081%=      5-min Rain = 0
KTH1 201357Z 22003KT M04/M06 A3036 RMK A01 T10361064  RH  081%=      5-min Rain = 0
KTH1 201358Z 22003KT M04/M07 A3036 RMK A01 T10371065  RH  081%=      5-min Rain = 0
KTH1 201359Z 22003KT M04/M07 A3036 RMK A01 T10371065  RH  081%=      5-min Rain = 0
KTH1 201400Z 21002KT M04/M07 A3036 RMK A01 T10371065  RH  081%=      5-min Rain = 0
KTH1 201401Z 18002KT M04/M07 A3036 RMK A01 T10381066  RH  081%=      5-min Rain = 0
KTH1 201402Z 17002KT M04/M07 A3036 RMK A01 T10371066  RH  081%=      5-min Rain = 0
KTH1 201403Z 18002KT M04/M07 A3036 RMK A01 T10381066  RH  081%=      5-min Rain = 0
KTH1 201404Z 19002KT M04/M07 A3036 RMK A01 T10381065  RH  081%=      5-min Rain = 0
KTH1 201405Z 18002KT M04/M07 A3036 RMK A01 T10371065  RH  081%=      5-min Rain = 0
KTH1 201406Z 19002KT M04/M07 A3036 RMK A01 T10381065  RH  081%=      5-min Rain = 0
KTH1 201407Z 20002KT M04/M07 A3036 RMK A01 T10381065  RH  081%=      5-min Rain = 0
KTH1 201408Z 20002KT M04/M07 A3036 RMK A01 T10381065  RH  082%=      5-min Rain = 0
KTH1 201409Z 20002KT M04/M07 A3036 RMK A01 T10381065  RH  082%=      5-min Rain = 0
KTH1 201410Z 20001KT M04/M06 A3036 RMK A01 T10381064  RH  082%=      5-min Rain = 0
KTH1 201411Z 18001KT M04/M06 A3036 RMK A01 T10381064  RH  082%=      5-min Rain = 0
KTH1 201412Z 19001KT M04/M06 A3036 RMK A01 T10381064  RH  082%=      5-min Rain = 0
KTH1 201413Z 20002KT M04/M06 A3036 RMK A01 T10381064  RH  082%=      5-min Rain = 0
KTH1 201414Z 19002KT M04/M06 A3036 RMK A01 T10381064  RH  083%=      5-min Rain = 0
KTH1 201415Z 20002KT M04/M06 A3036 RMK A01 T10381063  RH  082%=      5-min Rain = 0
KTH1 201416Z 21002KT M04/M06 A3036 RMK A01 T10381063  RH  082%=      5-min Rain = 0
KTH1 201417Z 21002KT M04/M06 A3036 RMK A01 T10381063  RH  082%=      5-min Rain = 0
KTH1 201418Z 20002KT M04/M06 A3036 RMK A01 T10381063  RH  082%=      5-min Rain = 0
KTH1 201419Z 21002KT M04/M06 A3036 RMK A01 T10371063  RH  083%=      5-min Rain = 0
KTH1 201420Z 22002KT M04/M06 A3036 RMK A01 T10371062  RH  083%=      5-min Rain = 0
KTH1 201421Z 21002KT M04/M06 A3036 RMK A01 T10371063  RH  082%=      5-min Rain = 0
KTH1 201422Z 22002KT M04/M06 A3036 RMK A01 T10361063  RH  082%=      5-min Rain = 0
KTH1 201423Z 21002KT M04/M06 A3036 RMK A01 T10361063  RH  081%=      5-min Rain = 0
KTH1 201424Z 20002KT M04/M06 A3036 RMK A01 T10361063  RH  081%=      5-min Rain = 0
KTH1 201425Z 20002KT M04/M06 A3036 RMK A01 T10351062  RH  082%=      5-min Rain = 0
KTH1 201426Z 20002KT M04/M06 A3036 RMK A01 T10351061  RH  082%=      5-min Rain = 0
KTH1 201427Z 19001KT M03/M06 A3036 RMK A01 T10341061  RH  082%=      5-min Rain = 0
KTH1 201428Z 21002KT M04/M06 A3036 RMK A01 T10351063  RH  081%=      5-min Rain = 0
KTH1 201429Z 22002KT M03/M06 A3036 RMK A01 T10341063  RH  080%=      5-min Rain = 0
KTH1 201430Z 22003KT M03/M06 A3036 RMK A01 T10341062  RH  081%=      5-min Rain = 0
KTH1 201431Z 22003KT M03/M06 A3036 RMK A01 T10341061  RH  081%=      5-min Rain = 0
KTH1 201432Z 21003KT M03/M06 A3036 RMK A01 T10341061  RH  081%=      5-min Rain = 0
KTH1 201433Z 21003KT M03/M06 A3036 RMK A01 T10341061  RH  081%=      5-min Rain = 0
KTH1 201434Z 20002KT M03/M06 A3036 RMK A01 T10341062  RH  081%=      5-min Rain = 0
KTH1 201435Z 21002KT M03/M06 A3036 RMK A01 T10331061  RH  081%=      5-min Rain = 0
KTH1 201436Z 20002KT M03/M06 A3036 RMK A01 T10331061  RH  081%=      5-min Rain = 0
KTH1 201437Z 21002KT M03/M06 A3037 RMK A01 T10331061  RH  081%=      5-min Rain = 0
KTH1 201438Z 22002KT M03/M06 A3037 RMK A01 T10331061  RH  081%=      5-min Rain = 0
KTH1 201439Z 23003KT M03/M06 A3037 RMK A01 T10321060  RH  081%=      5-min Rain = 0
KTH1 201440Z 23002KT M03/M06 A3037 RMK A01 T10321060  RH  081%=      5-min Rain = 0
KTH1 201441Z 22002KT M03/M06 A3037 RMK A01 T10321061  RH  080%=      5-min Rain = 0
KTH1 201442Z 22003KT M03/M06 A3037 RMK A01 T10311060  RH  081%=      5-min Rain = 0
KTH1 201443Z 22003KT M03/M06 A3037 RMK A01 T10311060  RH  081%=      5-min Rain = 0
KTH1 201444Z 22003KT M03/M06 A3037 RMK A01 T10301060  RH  080%=      5-min Rain = 0
KTH1 201445Z 22003KT M03/M06 A3037 RMK A01 T10301062  RH  079%=      5-min Rain = 0
KTH1 201446Z 23002KT M03/M06 A3037 RMK A01 T10301061  RH  079%=      5-min Rain = 0
KTH1 201447Z 23002KT M03/M06 A3037 RMK A01 T10301060  RH  080%=      5-min Rain = 0
KTH1 201448Z 22004KT M03/M06 A3037 RMK A01 T10291058  RH  081%=      5-min Rain = 0
KTH1 201449Z 23004KT M03/M06 A3037 RMK A01 T10291058  RH  081%=      5-min Rain = 0
KTH1 201450Z 22004KT M03/M06 A3037 RMK A01 T10291058  RH  080%=      5-min Rain = 0
KTH1 201451Z 22003KT M03/M06 A3037 RMK A01 T10291059  RH  080%=      5-min Rain = 0
KTH1 201452Z 22003KT M03/M06 A3037 RMK A01 T10281058  RH  080%=      5-min Rain = 0
KTH1 201453Z 21003KT M03/M06 A3037 RMK A01 T10281056  RH  081%=      5-min Rain = 0
KTH1 201454Z 20002KT M03/M06 A3037 RMK A01 T10271057  RH  080%=      5-min Rain = 0
KTH1 201455Z 20003KT M03/M06 A3036 RMK A01 T10261056  RH  080%=      5-min Rain = 0
KTH1 201456Z 20003KT M03/M06 A3036 RMK A01 T10251057  RH  079%=      5-min Rain = 0
KTH1 201457Z 21003KT M03/M06 A3036 RMK A01 T10251058  RH  078%=      5-min Rain = 0
KTH1 201458Z 21003KT M02/M06 A3037 RMK A01 T10241056  RH  078%=      5-min Rain = 0
KTH1 201459Z 20002KT M02/M06 A3037 RMK A01 T10221055  RH  078%=      5-min Rain = 0
KTH1 201500Z 20004KT M02/M05 A3037 RMK A01 T10211053  RH  079%=      5-min Rain = 0
KTH1 201501Z 18003KT M02/M06 A3036 RMK A01 T10201056  RH  077%=      5-min Rain = 0
KTH1 201502Z 19002KT M02/M05 A3037 RMK A01 T10191054  RH  077%=      5-min Rain = 0
KTH1 201503Z 18003KT M02/M05 A3037 RMK A01 T10171052  RH  077%=      5-min Rain = 0
KTH1 201504Z 18003KT M02/M05 A3036 RMK A01 T10161053  RH  076%=      5-min Rain = 0
KTH1 201505Z 19003KT M02/M06 A3036 RMK A01 T10161055  RH  075%=      5-min Rain = 0
KTH1 201506Z 18004KT M02/M06 A3036 RMK A01 T10151055  RH  074%=      5-min Rain = 0
KTH1 201507Z 19004KT M02/M05 A3036 RMK A01 T10151054  RH  074%=      5-min Rain = 0
KTH1 201508Z 19004KT M01/M05 A3036 RMK A01 T10131051  RH  075%=      5-min Rain = 0
KTH1 201509Z 19004KT M01/M05 A3036 RMK A01 T10111050  RH  075%=      5-min Rain = 0
KTH1 201510Z 20004KT M01/M05 A3036 RMK A01 T10101052  RH  073%=      5-min Rain = 0
KTH1 201511Z 19005KT M01/M05 A3036 RMK A01 T10091051  RH  073%=      5-min Rain = 0
KTH1 201512Z 19007KT M01/M05 A3036 RMK A01 T10081054  RH  071%=      5-min Rain = 0
KTH1 201513Z 19007KT M01/M06 A3036 RMK A01 T10081056  RH  070%=      5-min Rain = 0
KTH1 201514Z 17004KT M01/M06 A3037 RMK A01 T10071056  RH  070%=      5-min Rain = 0
KTH1 201515Z 18006KT M01/M05 A3037 RMK A01 T10061053  RH  070%=      5-min Rain = 0
KTH1 201516Z 18006KT M01/M06 A3036 RMK A01 T10051055  RH  069%=      5-min Rain = 0
KTH1 201517Z 19005KT M01/M06 A3036 RMK A01 T10051055  RH  069%=      5-min Rain = 0
KTH1 201518Z 19005KT M01/M06 A3036 RMK A01 T10051056  RH  068%=      5-min Rain = 0
KTH1 201519Z 19005KT M00/M05 A3036 RMK A01 T10041054  RH  069%=      5-min Rain = 0
KTH1 201520Z 19006KT M00/M06 A3036 RMK A01 T10041057  RH  067%=      5-min Rain = 0
KTH1 201521Z 19005KT M00/M06 A3036 RMK A01 T10041058  RH  067%=      5-min Rain = 0
KTH1 201522Z 18004KT M00/M06 A3036 RMK A01 T10041055  RH  068%=      5-min Rain = 0
KTH1 201523Z 19003KT M00/M05 A3036 RMK A01 T10021051  RH  069%=      5-min Rain = 0
KTH1 201524Z 18002KT 00/05 A3036 RMK A01 T00-00-48  RH  070%=      5-min Rain = 0
KTH1 201525Z 17005KT 00/M05 A3036 RMK A01 T00011049  RH  069%=      5-min Rain = 0
KTH1 201526Z 17005KT 00/M05 A3036 RMK A01 T00011052  RH  067%=      5-min Rain = 0
KTH1 201527Z 18006KT 00/M05 A3036 RMK A01 T00021053  RH  067%=      5-min Rain = 0
KTH1 201528Z 18006KT 00/M05 A3036 RMK A01 T00021051  RH  067%=      5-min Rain = 0
KTH1 201529Z 19008KT 00/M05 A3036 RMK A01 T00031051  RH  067%=      5-min Rain = 0
KTH1 201530Z 20006KT 00/M05 A3036 RMK A01 T00041052  RH  066%=      5-min Rain = 0
KTH1 201531Z 19006KT 00/M05 A3036 RMK A01 T00031054  RH  065%=      5-min Rain = 0
KTH1 201532Z 19006KT 00/M05 A3036 RMK A01 T00031053  RH  066%=      5-min Rain = 0
KTH1 201533Z 19007KT 00/M05 A3036 RMK A01 T00031052  RH  066%=      5-min Rain = 0
KTH1 201534Z 18008KT 00/M05 A3036 RMK A01 T00041053  RH  065%=      5-min Rain = 0
KTH1 201535Z 18007KT 01/M05 A3036 RMK A01 T00051053  RH  065%=      5-min Rain = 0
KTH1 201536Z 19007KT 01/M05 A3036 RMK A01 T00051054  RH  065%=      5-min Rain = 0
KTH1 201537Z 19006KT 01/M05 A3036 RMK A01 T00061053  RH  065%=      5-min Rain = 0
KTH1 201538Z 18007KT 01/M05 A3036 RMK A01 T00061053  RH  065%=      5-min Rain = 0
KTH1 201539Z 19006KT 01/M05 A3036 RMK A01 T00061054  RH  064%=      5-min Rain = 0
KTH1 201540Z 18007KT 01/M06 A3036 RMK A01 T00061055  RH  064%=      5-min Rain = 0
KTH1 201541Z 18006KT 01/M06 A3036 RMK A01 T00061055  RH  064%=      5-min Rain = 0
KTH1 201542Z 20005KT 01/M05 A3036 RMK A01 T00061053  RH  064%=      5-min Rain = 0
KTH1 201543Z 20007KT 01/M05 A3036 RMK A01 T00071054  RH  064%=      5-min Rain = 0
KTH1 201544Z 19005KT 01/M05 A3036 RMK A01 T00071054  RH  064%=      5-min Rain = 0
KTH1 201545Z 19003KT 01/M05 A3036 RMK A01 T00081050  RH  065%=      5-min Rain = 0
KTH1 201546Z 20006KT 01/M05 A3036 RMK A01 T00101049  RH  065%=      5-min Rain = 0
KTH1 201547Z 20005KT 01/M06 A3036 RMK A01 T00101056  RH  061%=      5-min Rain = 0
KTH1 201548Z 20007KT 01/M06 A3036 RMK A01 T00091057  RH  061%=      5-min Rain = 0
KTH1 201549Z 19007KT 01/M06 A3036 RMK A01 T00091058  RH  061%=      5-min Rain = 0
KTH1 201550Z 19007KT 01/M06 A3036 RMK A01 T00081057  RH  062%=      5-min Rain = 0
KTH1 201551Z 19007KT 01/M06 A3036 RMK A01 T00091056  RH  061%=      5-min Rain = 0
KTH1 201552Z 19006KT 01/M06 A3036 RMK A01 T00111056  RH  061%=      5-min Rain = 0
KTH1 201553Z 20005KT 01/M06 A3036 RMK A01 T00111057  RH  061%=      5-min Rain = 0
KTH1 201554Z 17006KT 01/M05 A3036 RMK A01 T00121054  RH  061%=      5-min Rain = 0
KTH1 201555Z 18007KT 01/M06 A3036 RMK A01 T00131056  RH  060%=      5-min Rain = 0
KTH1 201556Z 18006KT 01/M06 A3036 RMK A01 T00141057  RH  059%=      5-min Rain = 0
KTH1 201557Z 18006KT 02/M06 A3036 RMK A01 T00151057  RH  059%=      5-min Rain = 0
KTH1 201558Z 17006KT 02/M06 A3036 RMK A01 T00151057  RH  059%=      5-min Rain = 0
KTH1 201559Z 19005KT 02/M05 A3036 RMK A01 T00151054  RH  060%=      5-min Rain = 0
KTH1 201600Z 19006KT 02/M06 A3036 RMK A01 T00161055  RH  059%=      5-min Rain = 0
KTH1 201601Z 20005KT 02/M06 A3036 RMK A01 T00161058  RH  058%=      5-min Rain = 0
KTH1 201602Z 18006KT 02/M06 A3036 RMK A01 T00161056  RH  059%=      5-min Rain = 0
KTH1 201603Z 18006KT 02/M05 A3036 RMK A01 T00161053  RH  060%=      5-min Rain = 0
KTH1 201604Z 18007KT 02/M06 A3036 RMK A01 T00161056  RH  059%=      5-min Rain = 0
KTH1 201605Z 18005KT 02/M06 A3036 RMK A01 T00161057  RH  059%=      5-min Rain = 0
KTH1 201606Z 18005KT 02/M05 A3036 RMK A01 T00161051  RH  061%=      5-min Rain = 0
KTH1 201607Z 17005KT 02/M05 A3035 RMK A01 T00181054  RH  059%=      5-min Rain = 0
KTH1 201608Z 16005KT 02/M06 A3035 RMK A01 T00181058  RH  057%=      5-min Rain = 0
KTH1 201609Z 16005KT 02/M06 A3035 RMK A01 T00181059  RH  057%=      5-min Rain = 0
KTH1 201610Z 18006KT 02/M06 A3035 RMK A01 T00181061  RH  056%=      5-min Rain = 0
KTH1 201611Z 16005KT 02/M06 A3035 RMK A01 T00181058  RH  057%=      5-min Rain = 0
KTH1 201612Z 16007KT 02/M06 A3035 RMK A01 T00181056  RH  058%=      5-min Rain = 0
KTH1 201613Z 16007KT 02/M06 A3035 RMK A01 T00181060  RH  056%=      5-min Rain = 0
KTH1 201614Z 16007KT 02/M06 A3035 RMK A01 T00181058  RH  057%=      5-min Rain = 0
KTH1 201615Z 15008KT 02/M06 A3035 RMK A01 T00191056  RH  058%=      5-min Rain = 0
KTH1 201616Z 16008KT 02/M06 A3035 RMK A01 T00191058  RH  056%=      5-min Rain = 0
KTH1 201617Z 16006KT 02/M06 A3035 RMK A01 T00191058  RH  057%=      5-min Rain = 0
KTH1 201618Z 18003KT 02/M05 A3035 RMK A01 T00201053  RH  058%=      5-min Rain = 0
KTH1 201619Z 18006KT 02/M05 A3035 RMK A01 T00211052  RH  058%=      5-min Rain = 0
KTH1 201620Z 16007KT 02/M06 A3035 RMK A01 T00231055  RH  056%=      5-min Rain = 0
KTH1 201621Z 18007KT 02/M06 A3035 RMK A01 T00211062  RH  054%=      5-min Rain = 0
KTH1 201622Z 18005KT 02/M06 A3035 RMK A01 T00201063  RH  054%=      5-min Rain = 0
KTH1 201623Z 18007KT 02/M06 A3035 RMK A01 T00201057  RH  057%=      5-min Rain = 0
KTH1 201624Z 18008KT 02/M06 A3035 RMK A01 T00211061  RH  055%=      5-min Rain = 0
KTH1 201625Z 17007KT 02/M06 A3035 RMK A01 T00201062  RH  054%=      5-min Rain = 0
KTH1 201626Z 18008KT 02/M06 A3035 RMK A01 T00191064  RH  054%=      5-min Rain = 0
KTH1 201627Z 19007KT 02/M06 A3035 RMK A01 T00181063  RH  055%=      5-min Rain = 0
KTH1 201628Z 19006KT 02/M06 A3035 RMK A01 T00191062  RH  055%=      5-min Rain = 0
KTH1 201629Z 18006KT 02/M06 A3035 RMK A01 T00201060  RH  056%=      5-min Rain = 0
KTH1 201630Z 16005KT 02/M06 A3035 RMK A01 T00201058  RH  056%=      5-min Rain = 0
KTH1 201631Z 16004KT 02/M06 A3035 RMK A01 T00211056  RH  057%=      5-min Rain = 0
KTH1 201632Z 18005KT 02/M05 A3035 RMK A01 T00231052  RH  058%=      5-min Rain = 0
KTH1 201633Z 17006KT 03/M05 A3035 RMK A01 T00251052  RH  057%=      5-min Rain = 0
KTH1 201634Z 16005KT 02/M05 A3035 RMK A01 T00241053  RH  057%=      5-min Rain = 0
KTH1 201635Z 18004KT 03/M05 A3035 RMK A01 T00251050  RH  057%=      5-min Rain = 0
KTH1 201636Z 18003KT 03/M05 A3035 RMK A01 T00271049  RH  057%=      5-min Rain = 0
KTH1 201637Z 17004KT 03/M05 A3035 RMK A01 T00291047  RH  058%=      5-min Rain = 0
KTH1 201638Z 18007KT 03/M05 A3035 RMK A01 T00301049  RH  056%=      5-min Rain = 0
KTH1 201639Z 19006KT 03/M05 A3035 RMK A01 T00281053  RH  055%=      5-min Rain = 0
KTH1 201640Z 18006KT 03/M05 A3035 RMK A01 T00281053  RH  055%=      5-min Rain = 0
KTH1 201641Z 17007KT 03/M05 A3035 RMK A01 T00271054  RH  055%=      5-min Rain = 0
KTH1 201642Z 17008KT 03/M06 A3035 RMK A01 T00261055  RH  055%=      5-min Rain = 0
KTH1 201643Z 18007KT 03/M06 A3035 RMK A01 T00251056  RH  055%=      5-min Rain = 0
KTH1 201644Z 18006KT 02/M06 A3035 RMK A01 T00241056  RH  055%=      5-min Rain = 0
KTH1 201645Z 18006KT 02/M05 A3035 RMK A01 T00241054  RH  056%=      5-min Rain = 0
KTH1 201646Z 18007KT 02/M05 A3034 RMK A01 T00241054  RH  056%=      5-min Rain = 0
KTH1 201647Z 19005KT 02/M05 A3034 RMK A01 T00241052  RH  057%=      5-min Rain = 0
KTH1 201648Z 17006KT 03/M05 A3034 RMK A01 T00251051  RH  057%=      5-min Rain = 0
KTH1 201649Z 16004KT 03/M05 A3034 RMK A01 T00251052  RH  056%=      5-min Rain = 0
KTH1 201650Z 15005KT 03/M05 A3034 RMK A01 T00271050  RH  057%=      5-min Rain = 0
KTH1 201651Z 15005KT 03/M05 A3034 RMK A01 T00291047  RH  057%=      5-min Rain = 0
KTH1 201652Z 16005KT 03/M05 A3034 RMK A01 T00301048  RH  056%=      5-min Rain = 0
KTH1 201653Z 16004KT 03/M05 A3034 RMK A01 T00301050  RH  056%=      5-min Rain = 0
KTH1 201654Z 18004KT 03/M05 A3034 RMK A01 T00311047  RH  057%=      5-min Rain = 0
KTH1 201655Z 20004KT 03/M05 A3034 RMK A01 T00321050  RH  055%=      5-min Rain = 0
KTH1 201656Z 16005KT 03/M05 A3035 RMK A01 T00331050  RH  055%=      5-min Rain = 0
KTH1 201657Z 16006KT 03/M05 A3035 RMK A01 T00331053  RH  054%=      5-min Rain = 0
KTH1 201658Z 17006KT 03/M05 A3035 RMK A01 T00311054  RH  053%=      5-min Rain = 0
KTH1 201659Z 16004KT 03/M06 A3035 RMK A01 T00301055  RH  053%=      5-min Rain = 0
KTH1 201700Z 15005KT 03/M05 A3035 RMK A01 T00291053  RH  055%=      5-min Rain = 0
KTH1 201701Z 16007KT 03/M05 A3035 RMK A01 T00291054  RH  054%=      5-min Rain = 0
KTH1 201702Z 17006KT 03/M06 A3035 RMK A01 T00291055  RH  054%=      5-min Rain = 0
KTH1 201703Z 16007KT 03/M06 A3035 RMK A01 T00291056  RH  054%=      5-min Rain = 0
KTH1 201704Z 16006KT 03/M06 A3035 RMK A01 T00291056  RH  054%=      5-min Rain = 0
KTH1 201705Z 17005KT 03/M05 A3035 RMK A01 T00291054  RH  054%=      5-min Rain = 0
KTH1 201706Z 15005KT 03/M05 A3035 RMK A01 T00291054  RH  054%=      5-min Rain = 0
KTH1 201707Z 14006KT 03/M05 A3034 RMK A01 T00311050  RH  055%=      5-min Rain = 0
KTH1 201708Z 14007KT 03/M05 A3034 RMK A01 T00331050  RH  054%=      5-min Rain = 0
KTH1 201709Z 16005KT 03/M05 A3034 RMK A01 T00341051  RH  054%=      5-min Rain = 0
KTH1 201710Z 17003KT 04/M05 A3034 RMK A01 T00351049  RH  054%=      5-min Rain = 0
KTH1 201711Z 15006KT 04/M05 A3034 RMK A01 T00371049  RH  053%=      5-min Rain = 0
KTH1 201712Z 16006KT 04/M05 A3034 RMK A01 T00371053  RH  052%=      5-min Rain = 0
KTH1 201713Z 15007KT 04/M06 A3034 RMK A01 T00371056  RH  051%=      5-min Rain = 0
KTH1 201714Z 16008KT 04/M06 A3034 RMK A01 T00361056  RH  051%=      5-min Rain = 0
KTH1 201715Z 17006KT 04/M06 A3034 RMK A01 T00361057  RH  051%=      5-min Rain = 0
KTH1 201716Z 18004KT 04/M06 A3034 RMK A01 T00361056  RH  051%=      5-min Rain = 0
KTH1 201717Z 18005KT 04/M05 A3034 RMK A01 T00371051  RH  053%=      5-min Rain = 0
KTH1 201718Z 18004KT 04/M05 A3034 RMK A01 T00381053  RH  052%=      5-min Rain = 0
KTH1 201719Z 17003KT 04/M05 A3034 RMK A01 T00381052  RH  052%=      5-min Rain = 0
KTH1 201720Z 16005KT 04/M05 A3034 RMK A01 T00401049  RH  052%=      5-min Rain = 0
KTH1 201721Z 16007KT 04/M05 A3034 RMK A01 T00411053  RH  051%=      5-min Rain = 0
KTH1 201722Z 17005KT 04/M05 A3034 RMK A01 T00401054  RH  050%=      5-min Rain = 0
KTH1 201723Z 14008KT 04/M05 A3034 RMK A01 T00381053  RH  051%=      5-min Rain = 0
KTH1 201724Z 16007KT 04/M05 A3033 RMK A01 T00381051  RH  052%=      5-min Rain = 0
KTH1 201725Z 16005KT 04/M05 A3033 RMK A01 T00381050  RH  053%=      5-min Rain = 0
KTH1 201726Z 14006KT 04/M05 A3033 RMK A01 T00381047  RH  054%=      5-min Rain = 0
KTH1 201727Z 15007KT 04/M05 A3033 RMK A01 T00381048  RH  053%=      5-min Rain = 0
KTH1 201728Z 15006KT 04/M05 A3033 RMK A01 T00381045  RH  054%=      5-min Rain = 0
KTH1 201729Z 14007KT 04/M05 A3033 RMK A01 T00401046  RH  054%=      5-min Rain = 0
KTH1 201730Z 12006KT 04/M05 A3033 RMK A01 T00401046  RH  054%=      5-min Rain = 0
KTH1 201731Z 12008KT 04/M05 A3033 RMK A01 T00401046  RH  053%=      5-min Rain = 0
KTH1 201732Z 13006KT 04/M04 A3033 RMK A01 T00401043  RH  054%=      5-min Rain = 0
KTH1 201733Z 14005KT 04/M04 A3033 RMK A01 T00421043  RH  054%=      5-min Rain = 0
KTH1 201734Z 16006KT 04/M05 A3033 RMK A01 T00421048  RH  052%=      5-min Rain = 0
KTH1 201735Z 16006KT 04/M05 A3033 RMK A01 T00431046  RH  053%=      5-min Rain = 0
KTH1 201736Z 14006KT 04/M05 A3033 RMK A01 T00441047  RH  052%=      5-min Rain = 0
KTH1 201737Z 13008KT 04/M04 A3033 RMK A01 T00441044  RH  053%=      5-min Rain = 0
KTH1 201738Z 13007KT 05/M04 A3033 RMK A01 T00461044  RH  052%=      5-min Rain = 0
KTH1 201739Z 14007KT 05/M05 A3033 RMK A01 T00451047  RH  051%=      5-min Rain = 0
KTH1 201740Z 15006KT 05/M05 A3033 RMK A01 T00451047  RH  051%=      5-min Rain = 0
KTH1 201741Z 14007KT 05/M05 A3032 RMK A01 T00451047  RH  051%=      5-min Rain = 0
KTH1 201742Z 13007KT 05/M05 A3032 RMK A01 T00451046  RH  051%=      5-min Rain = 0
KTH1 201743Z 14006KT 05/M04 A3032 RMK A01 T00461044  RH  052%=      5-min Rain = 0
KTH1 201744Z 15006KT 05/M05 A3032 RMK A01 T00451049  RH  050%=      5-min Rain = 0
KTH1 201745Z 15007KT 04/M05 A3032 RMK A01 T00441046  RH  052%=      5-min Rain = 0
KTH1 201746Z 14010KT 05/M05 A3032 RMK A01 T00451047  RH  051%=      5-min Rain = 0
KTH1 201747Z 15009KT 05/M05 A3032 RMK A01 T00451049  RH  051%=      5-min Rain = 0
KTH1 201748Z 14008KT 04/M05 A3032 RMK A01 T00441048  RH  051%=      5-min Rain = 0
KTH1 201749Z 13007KT 04/M05 A3032 RMK A01 T00441046  RH  052%=      5-min Rain = 0
KTH1 201750Z 13005KT 04/M05 A3032 RMK A01 T00441048  RH  051%=      5-min Rain = 0
KTH1 201751Z 16008KT 05/M05 A3032 RMK A01 T00451045  RH  052%=      5-min Rain = 0
KTH1 201752Z 14006KT 05/M05 A3032 RMK A01 T00461050  RH  050%=      5-min Rain = 0
KTH1 201753Z 14007KT 05/M04 A3032 RMK A01 T00481043  RH  052%=      5-min Rain = 0
KTH1 201754Z 14006KT 05/M04 A3032 RMK A01 T00501043  RH  051%=      5-min Rain = 0
KTH1 201755Z 13009KT 05/M04 A3032 RMK A01 T00511042  RH  051%=      5-min Rain = 0
KTH1 201756Z 14008KT 05/M05 A3032 RMK A01 T00501046  RH  050%=      5-min Rain = 0
KTH1 201757Z 15008KT 05/M05 A3032 RMK A01 T00491045  RH  051%=      5-min Rain = 0
KTH1 201758Z 16009KT 05/M05 A3032 RMK A01 T00491045  RH  051%=      5-min Rain = 0
KTH1 201759Z 15010KT 05/M05 A3032 RMK A01 T00491046  RH  050%=      5-min Rain = 0
KTH1 201800Z 15010KT 05/M05 A3031 RMK A01 T00471047  RH  050%=      5-min Rain = 0
KTH1 201801Z 15009KT 05/M04 A3031 RMK A01 T00461042  RH  053%=      5-min Rain = 0
KTH1 201802Z 15008KT 05/M04 A3031 RMK A01 T00471041  RH  053%=      5-min Rain = 0
KTH1 201803Z 15008KT 05/M04 A3031 RMK A01 T00481041  RH  053%=      5-min Rain = 0
KTH1 201804Z 15008KT 05/M04 A3031 RMK A01 T00501039  RH  052%=      5-min Rain = 0
KTH1 201805Z 14006KT 05/M04 A3031 RMK A01 T00511040  RH  052%=      5-min Rain = 0
KTH1 201806Z 15009KT 05/M04 A3031 RMK A01 T00541036  RH  052%=      5-min Rain = 0
KTH1 201807Z 15008KT 05/M04 A3031 RMK A01 T00541039  RH  051%=      5-min Rain = 0
KTH1 201808Z 14008KT 06/M04 A3031 RMK A01 T00551036  RH  052%=      5-min Rain = 0
KTH1 201809Z 15009KT 06/M04 A3031 RMK A01 T00561036  RH  052%=      5-min Rain = 0
KTH1 201810Z 13008KT 06/M04 A303 RMK A01 T00561038  RH  051%=      5-min Rain = 0
KTH1 201811Z 15007KT 06/M03 A303 RMK A01 T00561034  RH  052%=      5-min Rain = 0
KTH1 201812Z 15007KT 06/M03 A303 RMK A01 T00581034  RH  052%=      5-min Rain = 0
KTH1 201813Z 14006KT 06/M03 A303 RMK A01 T00591034  RH  051%=      5-min Rain = 0
KTH1 201814Z 13006KT 06/M03 A303 RMK A01 T00611030  RH  052%=      5-min Rain = 0
KTH1 201815Z 13006KT 06/M03 A303 RMK A01 T00621031  RH  051%=      5-min Rain = 0
KTH1 201816Z 12008KT 06/M03 A303 RMK A01 T00621032  RH  051%=      5-min Rain = 0
KTH1 201817Z 12006KT 06/M03 A303 RMK A01 T00601033  RH  051%=      5-min Rain = 0
KTH1 201818Z 09007KT 06/M03 A303 RMK A01 T00571033  RH  052%=      5-min Rain = 0
KTH1 201819Z 14008KT 06/M03 A303 RMK A01 T00581029  RH  054%=      5-min Rain = 0
KTH1 201820Z 13009KT 06/M03 A303 RMK A01 T00611029  RH  052%=      5-min Rain = 0
KTH1 201821Z 14007KT 06/M03 A303 RMK A01 T00611032  RH  051%=      5-min Rain = 0
KTH1 201822Z 13007KT 06/M03 A303 RMK A01 T00601031  RH  052%=      5-min Rain = 0
KTH1 201823Z 13010KT 06/M03 A303 RMK A01 T00621033  RH  050%=      5-min Rain = 0
KTH1 201824Z 14009KT 06/M04 A303 RMK A01 T00631038  RH  048%=      5-min Rain = 0
KTH1 201825Z 15009KT 06/M04 A3029 RMK A01 T00631039  RH  048%=      5-min Rain = 0
KTH1 201826Z 16007KT 06/M04 A3029 RMK A01 T00621042  RH  047%=      5-min Rain = 0
KTH1 201827Z 15011KT 06/M04 A3029 RMK A01 T00621038  RH  048%=      5-min Rain = 0
KTH1 201828Z 13010KT 06/M04 A3029 RMK A01 T00641040  RH  047%=      5-min Rain = 0
KTH1 201829Z 13010KT 06/M04 A3029 RMK A01 T00641041  RH  047%=      5-min Rain = 0
KTH1 201830Z 14007KT 06/M04 A3029 RMK A01 T00641036  RH  049%=      5-min Rain = 0
KTH1 201831Z 14010KT 07/M04 A3028 RMK A01 T00671038  RH  047%=      5-min Rain = 0
KTH1 201832Z 13010KT 07/M04 A3028 RMK A01 T00671039  RH  047%=      5-min Rain = 0
KTH1 201833Z 12010KT 07/M04 A3028 RMK A01 T00651042  RH  046%=      5-min Rain = 0
KTH1 201834Z 13008KT 06/M04 A3028 RMK A01 T00631040  RH  048%=      5-min Rain = 0
KTH1 201835Z 14009KT 06/M04 A3028 RMK A01 T00641038  RH  048%=      5-min Rain = 0
KTH1 201836Z 14007KT 07/M04 A3028 RMK A01 T00671035  RH  048%=      5-min Rain = 0
KTH1 201837Z 15008KT 07/M04 A3028 RMK A01 T00691035  RH  047%=      5-min Rain = 0
KTH1 201838Z 14007KT 07/M04 A3028 RMK A01 T00701038  RH  046%=      5-min Rain = 0
KTH1 201839Z 15005KT 07/M03 A3028 RMK A01 T00711033  RH  047%=      5-min Rain = 0
KTH1 201840Z 13007KT 07/M03 A3028 RMK A01 T00741028  RH  048%=      5-min Rain = 0
KTH1 201841Z 15008KT 08/M03 A3028 RMK A01 T00761033  RH  046%=      5-min Rain = 0
KTH1 201842Z 15006KT 08/M04 A3028 RMK A01 T00751036  RH  045%=      5-min Rain = 0
KTH1 201843Z 13005KT 08/M03 A3028 RMK A01 T00751031  RH  047%=      5-min Rain = 0
KTH1 201844Z 13007KT 08/M03 A3028 RMK A01 T00761030  RH  047%=      5-min Rain = 0
KTH1 201845Z 13008KT 08/M04 A3028 RMK A01 T00751036  RH  045%=      5-min Rain = 0
KTH1 201846Z 14010KT 07/M04 A3028 RMK A01 T00721038  RH  045%=      5-min Rain = 0
KTH1 201847Z 15007KT 07/M04 A3028 RMK A01 T00691042  RH  045%=      5-min Rain = 0
KTH1 201848Z 14008KT 07/M04 A3028 RMK A01 T00681040  RH  046%=      5-min Rain = 0
KTH1 201849Z 13006KT 07/M04 A3027 RMK A01 T00681038  RH  047%=      5-min Rain = 0
KTH1 201850Z 14007KT 07/M04 A3027 RMK A01 T00691036  RH  047%=      5-min Rain = 0
KTH1 201851Z 14009KT 07/M03 A3027 RMK A01 T00731031  RH  048%=      5-min Rain = 0
KTH1 201852Z 14010KT 08/M04 A3027 RMK A01 T00751039  RH  044%=      5-min Rain = 0
KTH1 201853Z 15007KT 07/M04 A3027 RMK A01 T00731044  RH  043%=      5-min Rain = 0
KTH1 201854Z 16009KT 07/M04 A3027 RMK A01 T00741039  RH  045%=      5-min Rain = 0
KTH1 201855Z 16009KT 08/M04 A3027 RMK A01 T00751042  RH  043%=      5-min Rain = 0
KTH1 201856Z 15008KT 08/M04 A3026 RMK A01 T00751040  RH  044%=      5-min Rain = 0
KTH1 201857Z 16006KT 08/M03 A3026 RMK A01 T00771034  RH  045%=      5-min Rain = 0
KTH1 201858Z 16007KT 08/M04 A3026 RMK A01 T00791036  RH  044%=      5-min Rain = 0
KTH1 201859Z 15008KT 08/M04 A3026 RMK A01 T00801035  RH  044%=      5-min Rain = 0
KTH1 201900Z 16010KT 08/M04 A3026 RMK A01 T00801039  RH  043%=      5-min Rain = 0
KTH1 201901Z 17007KT 08/M04 A3026 RMK A01 T00781041  RH  043%=      5-min Rain = 0
KTH1 201902Z 16007KT 08/M04 A3026 RMK A01 T00761041  RH  043%=      5-min Rain = 0
KTH1 201903Z 16007KT 08/M04 A3026 RMK A01 T00751039  RH  044%=      5-min Rain = 0
KTH1 201904Z 14008KT 08/M04 A3025 RMK A01 T00751038  RH  045%=      5-min Rain = 0
KTH1 201905Z 16009KT 08/M04 A3025 RMK A01 T00761036  RH  045%=      5-min Rain = 0
KTH1 201906Z 15009KT 08/M04 A3025 RMK A01 T00771040  RH  043%=      5-min Rain = 0
KTH1 201907Z 15012KT 08/M04 A3025 RMK A01 T00771038  RH  044%=      5-min Rain = 0
KTH1 201908Z 16013KT 08/M04 A3025 RMK A01 T00771039  RH  044%=      5-min Rain = 0
KTH1 201909Z 16010KT 08/M04 A3025 RMK A01 T00751041  RH  044%=      5-min Rain = 0
KTH1 201910Z 16009KT 08/M04 A3025 RMK A01 T00751041  RH  044%=      5-min Rain = 0
KTH1 201911Z 15007KT 07/M04 A3025 RMK A01 T00741040  RH  044%=      5-min Rain = 0
KTH1 201912Z 15008KT 08/M03 A3025 RMK A01 T00761033  RH  046%=      5-min Rain = 0
KTH1 201913Z 15007KT 08/M03 A3025 RMK A01 T00781033  RH  045%=      5-min Rain = 0
KTH1 201914Z 16008KT 08/M03 A3025 RMK A01 T00791033  RH  045%=      5-min Rain = 0
KTH1 201915Z 16008KT 08/M04 A3025 RMK A01 T00791036  RH  044%=      5-min Rain = 0
KTH1 201916Z 16010KT 08/M04 A3025 RMK A01 T00771035  RH  045%=      5-min Rain = 0
KTH1 201917Z 16007KT 08/M04 A3025 RMK A01 T00771038  RH  044%=      5-min Rain = 0
KTH1 201918Z 15007KT 08/M04 A3025 RMK A01 T00771036  RH  045%=      5-min Rain = 0
KTH1 201919Z 15007KT 08/M04 A3025 RMK A01 T00771036  RH  045%=      5-min Rain = 0
KTH1 201920Z 16009KT 08/M04 A3025 RMK A01 T00771036  RH  045%=      5-min Rain = 0
KTH1 201921Z 16007KT 08/M04 A3025 RMK A01 T00761038  RH  044%=      5-min Rain = 0
KTH1 201922Z 16006KT 08/M04 A3025 RMK A01 T00761035  RH  045%=      5-min Rain = 0
KTH1 201923Z 14010KT 08/M03 A3025 RMK A01 T00791032  RH  045%=      5-min Rain = 0
KTH1 201924Z 15009KT 08/M04 A3025 RMK A01 T00801035  RH  044%=      5-min Rain = 0
KTH1 201925Z 15010KT 08/M04 A3025 RMK A01 T00801037  RH  043%=      5-min Rain = 0
KTH1 201926Z 15008KT 08/M03 A3025 RMK A01 T00811032  RH  045%=      5-min Rain = 0
KTH1 201927Z 16008KT 08/M03 A3025 RMK A01 T00841031  RH  044%=      5-min Rain = 0
KTH1 201928Z 16008KT 08/M03 A3024 RMK A01 T00841033  RH  043%=      5-min Rain = 0
KTH1 201929Z 15008KT 08/M03 A3024 RMK A01 T00841034  RH  043%=      5-min Rain = 0
KTH1 201930Z 15008KT 09/M03 A3024 RMK A01 T00851031  RH  044%=      5-min Rain = 0
KTH1 201931Z 16010KT 09/M03 A3024 RMK A01 T00881028  RH  044%=      5-min Rain = 0
KTH1 201932Z 16011KT 09/M04 A3024 RMK A01 T00901036  RH  041%=      5-min Rain = 0
KTH1 201933Z 18009KT 09/M04 A3024 RMK A01 T00881043  RH  039%=      5-min Rain = 0
KTH1 201934Z 16007KT 09/M04 A3024 RMK A01 T00861040  RH  041%=      5-min Rain = 0
KTH1 201935Z 16008KT 09/M04 A3024 RMK A01 T00861037  RH  042%=      5-min Rain = 0
KTH1 201936Z 15008KT 09/M04 A3024 RMK A01 T00861035  RH  042%=      5-min Rain = 0
KTH1 201937Z 14008KT 09/M03 A3024 RMK A01 T00861034  RH  043%=      5-min Rain = 0
KTH1 201938Z 14007KT 09/M03 A3024 RMK A01 T00851034  RH  043%=      5-min Rain = 0
KTH1 201939Z 14007KT 09/M03 A3024 RMK A01 T00851033  RH  043%=      5-min Rain = 0
KTH1 201940Z 14009KT 09/M03 A3024 RMK A01 T00881032  RH  043%=      5-min Rain = 0
KTH1 201941Z 14010KT 09/M03 A3024 RMK A01 T00901031  RH  042%=      5-min Rain = 0
KTH1 201942Z 15009KT 09/M03 A3024 RMK A01 T00901034  RH  041%=      5-min Rain = 0
KTH1 201943Z 15011KT 09/M03 A3024 RMK A01 T00901034  RH  042%=      5-min Rain = 0
KTH1 201944Z 16009KT 09/M04 A3024 RMK A01 T00891037  RH  041%=      5-min Rain = 0
KTH1 201945Z 16008KT 09/M04 A3023 RMK A01 T00891037  RH  041%=      5-min Rain = 0
KTH1 201946Z 14012KT 09/M04 A3023 RMK A01 T00891036  RH  041%=      5-min Rain = 0
KTH1 201947Z 15011KT 09/M04 A3023 RMK A01 T00901036  RH  041%=      5-min Rain = 0
KTH1 201948Z 15009KT 09/M03 A3023 RMK A01 T00901033  RH  042%=      5-min Rain = 0
KTH1 201949Z 15008KT 09/M03 A3023 RMK A01 T00911031  RH  042%=      5-min Rain = 0
KTH1 201950Z 16009KT 09/M03 A3023 RMK A01 T00931033  RH  041%=      5-min Rain = 0
KTH1 201951Z 16011KT 09/M04 A3023 RMK A01 T00941037  RH  040%=      5-min Rain = 0
KTH1 201952Z 16009KT 09/M04 A3023 RMK A01 T00931039  RH  039%=      5-min Rain = 0
KTH1 201953Z 16009KT 09/M04 A3022 RMK A01 T00921039  RH  040%=      5-min Rain = 0
KTH1 201954Z 16010KT 09/M04 A3022 RMK A01 T00911039  RH  040%=      5-min Rain = 0
KTH1 201955Z 16010KT 09/M03 A3022 RMK A01 T00921032  RH  042%=      5-min Rain = 0
KTH1 201956Z 15012KT 09/M04 A3022 RMK A01 T00941036  RH  040%=      5-min Rain = 0
KTH1 201957Z 16009KT 09/M04 A3022 RMK A01 T00941039  RH  039%=      5-min Rain = 0
KTH1 201958Z 15011KT 09/M04 A3022 RMK A01 T00931036  RH  040%=      5-min Rain = 0
KTH1 201959Z 16011KT 10/M03 A3022 RMK A01 T00961034  RH  040%=      5-min Rain = 0
KTH1 202000Z 17011KT 10/M04 A3022 RMK A01 T00971038  RH  039%=      5-min Rain = 0
KTH1 202001Z 17011KT 10/M04 A3022 RMK A01 T00961040  RH  038%=      5-min Rain = 0
KTH1 202002Z 17012KT 09/M04 A3022 RMK A01 T00941042  RH  038%=      5-min Rain = 0
KTH1 202003Z 15010KT 09/M04 A3022 RMK A01 T00921039  RH  039%=      5-min Rain = 0
KTH1 202004Z 16010KT 09/M04 A3022 RMK A01 T00931036  RH  040%=      5-min Rain = 0
KTH1 202005Z 16011KT 10/M04 A3021 RMK A01 T00951035  RH  040%=      5-min Rain = 0
KTH1 202006Z 16009KT 10/M04 A3021 RMK A01 T00951037  RH  039%=      5-min Rain = 0
KTH1 202007Z 16011KT 10/M04 A3021 RMK A01 T00951036  RH  039%=      5-min Rain = 0
KTH1 202008Z 17011KT 10/M04 A3021 RMK A01 T00961036  RH  039%=      5-min Rain = 0
KTH1 202009Z 16009KT 10/M04 A3021 RMK A01 T00951035  RH  040%=      5-min Rain = 0
KTH1 202010Z 16008KT 10/M04 A3021 RMK A01 T00961035  RH  039%=      5-min Rain = 0
KTH1 202011Z 16007KT 10/M03 A3021 RMK A01 T00981033  RH  040%=      5-min Rain = 0
KTH1 202012Z 17008G13KT 10/M03 A3021 RMK A01 T01001030  RH  040%=      5-min Rain = 0
KTH1 202013Z 16011KT 10/M04 A3021 RMK A01 T01021036  RH  038%=      5-min Rain = 0
KTH1 202014Z 16010KT 10/M04 A3021 RMK A01 T01001041  RH  037%=      5-min Rain = 0
KTH1 202015Z 17009KT 10/M04 A3021 RMK A01 T00981039  RH  038%=      5-min Rain = 0
KTH1 202016Z 15009KT 10/M04 A3021 RMK A01 T00981039  RH  038%=      5-min Rain = 0
KTH1 202017Z 15013KT 10/M04 A3021 RMK A01 T00981037  RH  038%=      5-min Rain = 0
KTH1 202018Z 15012KT 10/M04 A302 RMK A01 T00981037  RH  038%=      5-min Rain = 0
KTH1 202019Z 16011KT 10/M04 A302 RMK A01 T00981036  RH  039%=      5-min Rain = 0
KTH1 202020Z 15009KT 10/M04 A302 RMK A01 T00971036  RH  039%=      5-min Rain = 0
KTH1 202021Z 16009KT 10/M03 A302 RMK A01 T00991032  RH  040%=      5-min Rain = 0
KTH1 202022Z 15010KT 10/M03 A302 RMK A01 T01011031  RH  039%=      5-min Rain = 0
KTH1 202023Z 14009KT 10/M03 A302 RMK A01 T01021031  RH  039%=      5-min Rain = 0
KTH1 202024Z 16012KT 10/M03 A302 RMK A01 T01021033  RH  039%=      5-min Rain = 0
KTH1 202025Z 15013KT 10/M04 A302 RMK A01 T01021035  RH  038%=      5-min Rain = 0
KTH1 202026Z 15012KT 10/M03 A302 RMK A01 T01021033  RH  039%=      5-min Rain = 0
KTH1 202027Z 15011KT 10/M03 A302 RMK A01 T01021030  RH  039%=      5-min Rain = 0
KTH1 202028Z 14011KT 10/M03 A302 RMK A01 T01031032  RH  038%=      5-min Rain = 0
KTH1 202029Z 15009G14KT 10/M03 A302 RMK A01 T01031031  RH  039%=      5-min Rain = 0
KTH1 202030Z 15009KT 11/M03 A302 RMK A01 T01051030  RH  039%=      5-min Rain = 0
KTH1 202031Z 16009KT 11/M03 A3019 RMK A01 T01071033  RH  037%=      5-min Rain = 0
KTH1 202032Z 16009KT 11/M03 A3019 RMK A01 T01071032  RH  038%=      5-min Rain = 0
KTH1 202033Z 15009KT 11/M03 A3019 RMK A01 T01081031  RH  038%=      5-min Rain = 0
KTH1 202034Z 16011KT 11/M03 A3019 RMK A01 T01081028  RH  038%=      5-min Rain = 0
KTH1 202035Z 16011KT 11/M03 A3019 RMK A01 T01091031  RH  037%=      5-min Rain = 0
KTH1 202036Z 16010KT 11/M03 A3019 RMK A01 T01081030  RH  038%=      5-min Rain = 0
KTH1 202037Z 16008KT 11/M03 A3019 RMK A01 T01081031  RH  038%=      5-min Rain = 0
KTH1 202038Z 16011KT 11/M03 A3019 RMK A01 T01091030  RH  038%=      5-min Rain = 0
KTH1 202039Z 15010KT 11/M03 A3019 RMK A01 T01091031  RH  037%=      5-min Rain = 0
KTH1 202040Z 15013KT 11/M03 A3019 RMK A01 T01081030  RH  038%=      5-min Rain = 0
KTH1 202041Z 16012KT 11/M03 A3019 RMK A01 T01071029  RH  038%=      5-min Rain = 0
KTH1 202042Z 16012KT 11/M03 A3019 RMK A01 T01071032  RH  038%=      5-min Rain = 0
KTH1 202043Z 14011KT 11/M03 A3019 RMK A01 T01061033  RH  038%=      5-min Rain = 0
KTH1 202044Z 14008KT 11/M03 A3019 RMK A01 T01061032  RH  038%=      5-min Rain = 0
KTH1 202045Z 15009KT 11/M03 A3019 RMK A01 T01071027  RH  039%=      5-min Rain = 0
KTH1 202046Z 16008KT 11/M03 A3019 RMK A01 T01111025  RH  039%=      5-min Rain = 0
KTH1 202047Z 16009KT 11/M03 A3019 RMK A01 T01131026  RH  038%=      5-min Rain = 0
KTH1 202048Z 15013KT 11/M03 A3019 RMK A01 T01121029  RH  037%=      5-min Rain = 0
KTH1 202049Z 14010KT 11/M03 A3019 RMK A01 T01091032  RH  037%=      5-min Rain = 0
KTH1 202050Z 13008KT 11/M03 A3019 RMK A01 T01061030  RH  038%=      5-min Rain = 0
KTH1 202051Z 15006KT 11/M03 A3019 RMK A01 T01051030  RH  039%=      5-min Rain = 0
KTH1 202052Z 17007KT 11/M03 A3019 RMK A01 T01061028  RH  039%=      5-min Rain = 0
KTH1 202053Z 15008KT 11/M03 A3019 RMK A01 T01091026  RH  039%=      5-min Rain = 0
KTH1 202054Z 15007KT 11/M03 A3019 RMK A01 T01111027  RH  038%=      5-min Rain = 0
KTH1 202055Z 15009G14KT 11/M02 A3019 RMK A01 T01121024  RH  038%=      5-min Rain = 0
KTH1 202056Z 15012KT 11/M03 A3018 RMK A01 T01121026  RH  038%=      5-min Rain = 0
KTH1 202057Z 15012KT 11/M03 A3018 RMK A01 T01101030  RH  038%=      5-min Rain = 0
KTH1 202058Z 16011KT 11/M03 A3019 RMK A01 T01081030  RH  038%=      5-min Rain = 0
KTH1 202059Z 14007KT 11/M03 A3019 RMK A01 T01071030  RH  038%=      5-min Rain = 0
KTH1 202100Z 14009KT 11/M03 A3019 RMK A01 T01081025  RH  039%=      5-min Rain = 0
KTH1 202101Z 14009KT 11/M03 A3018 RMK A01 T01091028  RH  038%=      5-min Rain = 0
KTH1 202102Z 14008KT 11/M03 A3018 RMK A01 T01081025  RH  039%=      5-min Rain = 0
KTH1 202103Z 15007KT 11/M03 A3018 RMK A01 T01091025  RH  039%=      5-min Rain = 0
KTH1 202104Z 15009KT 11/M02 A3018 RMK A01 T01111023  RH  039%=      5-min Rain = 0
KTH1 202105Z 15010KT 11/M03 A3018 RMK A01 T01121025  RH  038%=      5-min Rain = 0
KTH1 202106Z 14009KT 11/M03 A3018 RMK A01 T01121026  RH  038%=      5-min Rain = 0
KTH1 202107Z 13011KT 11/M03 A3018 RMK A01 T01131025  RH  038%=      5-min Rain = 0
KTH1 202108Z 13010KT 11/M03 A3018 RMK A01 T01131027  RH  037%=      5-min Rain = 0
KTH1 202109Z 14011KT 11/M02 A3018 RMK A01 T01131024  RH  038%=      5-min Rain = 0
KTH1 202110Z 14010KT 11/M03 A3018 RMK A01 T01131027  RH  038%=      5-min Rain = 0
KTH1 202111Z 15011KT 11/M03 A3018 RMK A01 T01121026  RH  038%=      5-min Rain = 0
KTH1 202112Z 15010KT 11/M03 A3018 RMK A01 T01131026  RH  038%=      5-min Rain = 0
KTH1 202113Z 14007KT 12/M02 A3018 RMK A01 T01151021  RH  039%=      5-min Rain = 0
KTH1 202114Z 15008KT 12/M02 A3018 RMK A01 T01171022  RH  038%=      5-min Rain = 0
KTH1 202115Z 16007KT 12/M02 A3018 RMK A01 T01181024  RH  037%=      5-min Rain = 0
KTH1 202116Z 15010KT 12/M02 A3017 RMK A01 T01191023  RH  037%=      5-min Rain = 0
KTH1 202117Z 14011KT 12/M03 A3017 RMK A01 T01191025  RH  036%=      5-min Rain = 0
KTH1 202118Z 14010KT 12/M02 A3017 RMK A01 T01191023  RH  037%=      5-min Rain = 0
KTH1 202119Z 15009KT 12/M02 A3017 RMK A01 T01181024  RH  037%=      5-min Rain = 0
KTH1 202120Z 15008KT 12/M03 A3017 RMK A01 T01171026  RH  037%=      5-min Rain = 0
KTH1 202121Z 14008KT 12/M02 A3017 RMK A01 T01171022  RH  038%=      5-min Rain = 0
KTH1 202122Z 15010KT 12/M02 A3017 RMK A01 T01181022  RH  038%=      5-min Rain = 0
KTH1 202123Z 16009KT 12/M02 A3017 RMK A01 T01181022  RH  038%=      5-min Rain = 0
KTH1 202124Z 14009KT 12/M02 A3017 RMK A01 T01171023  RH  038%=      5-min Rain = 0
KTH1 202125Z 15011KT 12/M02 A3017 RMK A01 T01171023  RH  038%=      5-min Rain = 0
KTH1 202126Z 14012KT 12/M02 A3017 RMK A01 T01171024  RH  037%=      5-min Rain = 0
KTH1 202127Z 13008KT 12/M02 A3017 RMK A01 T01171022  RH  038%=      5-min Rain = 0
KTH1 202128Z 15007KT 12/M02 A3017 RMK A01 T01181020  RH  038%=      5-min Rain = 0
KTH1 202129Z 16007KT 12/M02 A3017 RMK A01 T01191018  RH  038%=      5-min Rain = 0
KTH1 202130Z 15006KT 12/M02 A3017 RMK A01 T01201021  RH  037%=      5-min Rain = 0
KTH1 202131Z 16008KT 12/M02 A3017 RMK A01 T01211021  RH  037%=      5-min Rain = 0
KTH1 202132Z 16009KT 12/M02 A3017 RMK A01 T01211024  RH  036%=      5-min Rain = 0
KTH1 202133Z 15011KT 12/M03 A3017 RMK A01 T01201025  RH  036%=      5-min Rain = 0
KTH1 202134Z 16006KT 12/M02 A3017 RMK A01 T01191024  RH  037%=      5-min Rain = 0
KTH1 202135Z 16008KT 12/M02 A3017 RMK A01 T01201023  RH  037%=      5-min Rain = 0
KTH1 202136Z 16006KT 12/M02 A3017 RMK A01 T01221023  RH  036%=      5-min Rain = 0
KTH1 202137Z 15008KT 12/M02 A3017 RMK A01 T01231022  RH  036%=      5-min Rain = 0
KTH1 202138Z 16009KT 12/M02 A3017 RMK A01 T01231024  RH  036%=      5-min Rain = 0
KTH1 202139Z 14010KT 12/M02 A3017 RMK A01 T01211024  RH  036%=      5-min Rain = 0
KTH1 202140Z 15013KT 12/M03 A3017 RMK A01 T01191026  RH  036%=      5-min Rain = 0
KTH1 202141Z 15010KT 12/M03 A3017 RMK A01 T01171028  RH  036%=      5-min Rain = 0
KTH1 202142Z 15007KT 12/M02 A3017 RMK A01 T01151024  RH  038%=      5-min Rain = 0
KTH1 202143Z 15007KT 12/M02 A3017 RMK A01 T01151024  RH  038%=      5-min Rain = 0
KTH1 202144Z 17009KT 12/M02 A3017 RMK A01 T01161023  RH  038%=      5-min Rain = 0
KTH1 202145Z 16009KT 12/M03 A3016 RMK A01 T01161027  RH  037%=      5-min Rain = 0
KTH1 202146Z 16008KT 12/M02 A3016 RMK A01 T01171024  RH  037%=      5-min Rain = 0
KTH1 202147Z 15009KT 12/M02 A3016 RMK A01 T01181024  RH  037%=      5-min Rain = 0
KTH1 202148Z 15010KT 12/M02 A3016 RMK A01 T01181022  RH  038%=      5-min Rain = 0
KTH1 202149Z 14009KT 12/M02 A3016 RMK A01 T01191021  RH  038%=      5-min Rain = 0
KTH1 202150Z 14008KT 12/M02 A3016 RMK A01 T01201021  RH  037%=      5-min Rain = 0
KTH1 202151Z 14010KT 12/M02 A3016 RMK A01 T01211018  RH  038%=      5-min Rain = 0
KTH1 202152Z 16009G14KT 12/M02 A3016 RMK A01 T01221020  RH  037%=      5-min Rain = 0
KTH1 202153Z 15009KT 12/M02 A3016 RMK A01 T01221022  RH  037%=      5-min Rain = 0
KTH1 202154Z 14009KT 12/M02 A3016 RMK A01 T01211024  RH  036%=      5-min Rain = 0
KTH1 202155Z 15009KT 12/M03 A3016 RMK A01 T01211025  RH  036%=      5-min Rain = 0
KTH1 202156Z 15012KT 12/M02 A3016 RMK A01 T01211023  RH  037%=      5-min Rain = 0
KTH1 202157Z 15010KT 12/M02 A3016 RMK A01 T01211024  RH  036%=      5-min Rain = 0
KTH1 202158Z 15009KT 12/M02 A3016 RMK A01 T01221022  RH  037%=      5-min Rain = 0
KTH1 202159Z 15011KT 12/M02 A3015 RMK A01 T01211023  RH  037%=      5-min Rain = 0
KTH1 202200Z 15012KT 12/M03 A3015 RMK A01 T01191027  RH  036%=      5-min Rain = 0
KTH1 202201Z 15012KT 12/M03 A3015 RMK A01 T01181027  RH  036%=      5-min Rain = 0
KTH1 202202Z 14010KT 12/M03 A3015 RMK A01 T01171027  RH  036%=      5-min Rain = 0
KTH1 202203Z 15010KT 12/M03 A3015 RMK A01 T01181025  RH  037%=      5-min Rain = 0
KTH1 202204Z 14012KT 12/M03 A3015 RMK A01 T01191027  RH  036%=      5-min Rain = 0
KTH1 202205Z 15010KT 12/M02 A3015 RMK A01 T01201024  RH  037%=      5-min Rain = 0
KTH1 202206Z 15009KT 12/M02 A3015 RMK A01 T01211022  RH  037%=      5-min Rain = 0
KTH1 202207Z 16010KT 12/M02 A3015 RMK A01 T01231022  RH  036%=      5-min Rain = 0
KTH1 202208Z 15010KT 12/M02 A3015 RMK A01 T01241022  RH  036%=      5-min Rain = 0
KTH1 202209Z 15011KT 12/M02 A3015 RMK A01 T01241023  RH  036%=      5-min Rain = 0
KTH1 202210Z 15010KT 12/M02 A3015 RMK A01 T01231024  RH  036%=      5-min Rain = 0
KTH1 202211Z 15012KT 12/M03 A3015 RMK A01 T01211025  RH  036%=      5-min Rain = 0
KTH1 202212Z 15011KT 12/M03 A3015 RMK A01 T01211026  RH  036%=      5-min Rain = 0
KTH1 202213Z 15009KT 12/M03 A3015 RMK A01 T01201025  RH  036%=      5-min Rain = 0
KTH1 202214Z 15010KT 12/M02 A3015 RMK A01 T01191022  RH  037%=      5-min Rain = 0
KTH1 202215Z 15010KT 12/M02 A3015 RMK A01 T01191022  RH  037%=      5-min Rain = 0
KTH1 202216Z 15012KT 12/M02 A3015 RMK A01 T01181023  RH  037%=      5-min Rain = 0
KTH1 202217Z 15009KT 12/M02 A3015 RMK A01 T01171024  RH  037%=      5-min Rain = 0
KTH1 202218Z 15011KT 12/M02 A3014 RMK A01 T01171021  RH  038%=      5-min Rain = 0
KTH1 202219Z 15011KT 12/M02 A3014 RMK A01 T01161024  RH  038%=      5-min Rain = 0
KTH1 202220Z 15010KT 12/M03 A3014 RMK A01 T01161025  RH  037%=      5-min Rain = 0
KTH1 202221Z 14011KT 12/M03 A3014 RMK A01 T01151025  RH  038%=      5-min Rain = 0
KTH1 202222Z 15011KT 12/M03 A3014 RMK A01 T01151025  RH  038%=      5-min Rain = 0
KTH1 202223Z 15010KT 12/M03 A3014 RMK A01 T01151025  RH  038%=      5-min Rain = 0
KTH1 202224Z 15011KT 12/M03 A3014 RMK A01 T01151025  RH  038%=      5-min Rain = 0
KTH1 202225Z 15011KT 12/M03 A3014 RMK A01 T01151025  RH  038%=      5-min Rain = 0
KTH1 202226Z 15009KT 12/M02 A3014 RMK A01 T01151024  RH  038%=      5-min Rain = 0
KTH1 202227Z 15010KT 12/M02 A3015 RMK A01 T01151022  RH  038%=      5-min Rain = 0
KTH1 202228Z 14008KT 12/M02 A3015 RMK A01 T01161023  RH  038%=      5-min Rain = 0
KTH1 202229Z 15007KT 12/M02 A3015 RMK A01 T01151022  RH  038%=      5-min Rain = 0
KTH1 202230Z 15007KT 12/M02 A3015 RMK A01 T01161021  RH  038%=      5-min Rain = 0
KTH1 202231Z 15007KT 12/M02 A3015 RMK A01 T01161020  RH  038%=      5-min Rain = 0
KTH1 202232Z 15007G12KT 12/M02 A3014 RMK A01 T01161019  RH  039%=      5-min Rain = 0
KTH1 202233Z 15011KT 12/M02 A3014 RMK A01 T01171021  RH  038%=      5-min Rain = 0
KTH1 202234Z 15009KT 12/M02 A3014 RMK A01 T01161022  RH  038%=      5-min Rain = 0
KTH1 202235Z 15010KT 12/M02 A3014 RMK A01 T01161023  RH  038%=      5-min Rain = 0
KTH1 202236Z 15009KT 12/M02 A3014 RMK A01 T01161022  RH  038%=      5-min Rain = 0
KTH1 202237Z 15008KT 12/M02 A3014 RMK A01 T01151021  RH  039%=      5-min Rain = 0
KTH1 202238Z 14007KT 12/M02 A3014 RMK A01 T01151019  RH  039%=      5-min Rain = 0
KTH1 202239Z 15008KT 12/M02 A3014 RMK A01 T01151018  RH  040%=      5-min Rain = 0
KTH1 202240Z 14008KT 12/M02 A3014 RMK A01 T01151018  RH  039%=      5-min Rain = 0
KTH1 202241Z 14008KT 11/M02 A3014 RMK A01 T01141019  RH  039%=      5-min Rain = 0
KTH1 202242Z 15008KT 11/M02 A3014 RMK A01 T01141019  RH  039%=      5-min Rain = 0
KTH1 202243Z 15008KT 11/M02 A3015 RMK A01 T01141020  RH  039%=      5-min Rain = 0
KTH1 202244Z 15008KT 11/M02 A3015 RMK A01 T01141021  RH  039%=      5-min Rain = 0
KTH1 202245Z 14007KT 11/M02 A3015 RMK A01 T01141021  RH  039%=      5-min Rain = 0
KTH1 202246Z 15006KT 11/M02 A3015 RMK A01 T01131018  RH  040%=      5-min Rain = 0
KTH1 202247Z 14006KT 11/M02 A3014 RMK A01 T01131016  RH  041%=      5-min Rain = 0
KTH1 202248Z 14008KT 11/M02 A3014 RMK A01 T01121016  RH  041%=      5-min Rain = 0
KTH1 202249Z 14009KT 11/M02 A3014 RMK A01 T01121020  RH  040%=      5-min Rain = 0
KTH1 202250Z 14009KT 11/M02 A3014 RMK A01 T01121021  RH  040%=      5-min Rain = 0
KTH1 202251Z 14010KT 11/M02 A3014 RMK A01 T01121022  RH  039%=      5-min Rain = 0
KTH1 202252Z 14009KT 11/M02 A3014 RMK A01 T01121021  RH  039%=      5-min Rain = 0
KTH1 202253Z 14008KT 11/M02 A3014 RMK A01 T01111021  RH  039%=      5-min Rain = 0
KTH1 202254Z 14006KT 11/M02 A3014 RMK A01 T01111020  RH  040%=      5-min Rain = 0
KTH1 202255Z 14006KT 11/M02 A3014 RMK A01 T01111020  RH  040%=      5-min Rain = 0
KTH1 202256Z 14007KT 11/M02 A3014 RMK A01 T01111019  RH  040%=      5-min Rain = 0
KTH1 202257Z 14008KT 11/M02 A3014 RMK A01 T01111020  RH  040%=      5-min Rain = 0
KTH1 202258Z 15006KT 11/M02 A3014 RMK A01 T01121020  RH  040%=      5-min Rain = 0
KTH1 202259Z 14008KT 11/M02 A3014 RMK A01 T01131017  RH  040%=      5-min Rain = 0
KTH1 202300Z 15007KT 11/M02 A3014 RMK A01 T01141019  RH  039%=      5-min Rain = 0
KTH1 202301Z 14007KT 12/M02 A3014 RMK A01 T01151019  RH  039%=      5-min Rain = 0
KTH1 202302Z 14005KT 12/M02 A3014 RMK A01 T01161016  RH  040%=      5-min Rain = 0
KTH1 202303Z 14007KT 12/M02 A3014 RMK A01 T01181016  RH  039%=      5-min Rain = 0
KTH1 202304Z 14007KT 12/M02 A3014 RMK A01 T01181016  RH  039%=      5-min Rain = 0
KTH1 202305Z 14008KT 12/M02 A3014 RMK A01 T01191015  RH  039%=      5-min Rain = 0
KTH1 202306Z 13007KT 12/M02 A3014 RMK A01 T01191017  RH  039%=      5-min Rain = 0
KTH1 202307Z 13008KT 12/M02 A3014 RMK A01 T01191016  RH  039%=      5-min Rain = 0
KTH1 202308Z 13009KT 12/M02 A3014 RMK A01 T01181018  RH  039%=      5-min Rain = 0
KTH1 202309Z 14007KT 12/M02 A3014 RMK A01 T01181016  RH  039%=      5-min Rain = 0
KTH1 202310Z 14008KT 12/M02 A3014 RMK A01 T01191015  RH  039%=      5-min Rain = 0
KTH1 202311Z 14009KT 12/M02 A3014 RMK A01 T01181018  RH  039%=      5-min Rain = 0
KTH1 202312Z 14009KT 12/M02 A3014 RMK A01 T01181018  RH  039%=      5-min Rain = 0
KTH1 202313Z 14009KT 12/M02 A3014 RMK A01 T01181019  RH  039%=      5-min Rain = 0
KTH1 202314Z 14007KT 12/M02 A3014 RMK A01 T01171018  RH  039%=      5-min Rain = 0
KTH1 202315Z 14009KT 12/M02 A3014 RMK A01 T01171016  RH  039%=      5-min Rain = 0
KTH1 202316Z 14009KT 12/M02 A3014 RMK A01 T01171017  RH  039%=      5-min Rain = 0
KTH1 202317Z 14010KT 12/M02 A3014 RMK A01 T01171018  RH  039%=      5-min Rain = 0
KTH1 202318Z 15009KT 12/M02 A3014 RMK A01 T01171018  RH  039%=      5-min Rain = 0
KTH1 202319Z 14010KT 12/M02 A3014 RMK A01 T01181018  RH  039%=      5-min Rain = 0
KTH1 202320Z 14010KT 12/M02 A3014 RMK A01 T01181019  RH  039%=      5-min Rain = 0
KTH1 202321Z 14009KT 12/M02 A3014 RMK A01 T01181018  RH  039%=      5-min Rain = 0
KTH1 202322Z 15010KT 12/M02 A3014 RMK A01 T01181017  RH  039%=      5-min Rain = 0
KTH1 202323Z 14008KT 12/M02 A3014 RMK A01 T01181018  RH  039%=      5-min Rain = 0
KTH1 202324Z 15009KT 12/M02 A3014 RMK A01 T01181017  RH  039%=      5-min Rain = 0
KTH1 202325Z 15008KT 12/M02 A3014 RMK A01 T01181017  RH  039%=      5-min Rain = 0
KTH1 202326Z 15008KT 12/M02 A3014 RMK A01 T01181017  RH  039%=      5-min Rain = 0
KTH1 202327Z 14009KT 12/M02 A3014 RMK A01 T01181017  RH  039%=      5-min Rain = 0
KTH1 202328Z 14008KT 12/M02 A3014 RMK A01 T01181017  RH  039%=      5-min Rain = 0
KTH1 202329Z 15007KT 12/M02 A3014 RMK A01 T01171018  RH  039%=      5-min Rain = 0
KTH1 202330Z 14007KT 12/M02 A3014 RMK A01 T01171017  RH  039%=      5-min Rain = 0
KTH1 202331Z 14010KT 12/M02 A3014 RMK A01 T01171017  RH  039%=      5-min Rain = 0
KTH1 202332Z 15008KT 12/M02 A3014 RMK A01 T01171019  RH  039%=      5-min Rain = 0
KTH1 202333Z 15008KT 12/M02 A3014 RMK A01 T01161017  RH  039%=      5-min Rain = 0
KTH1 202334Z 14008KT 12/M02 A3014 RMK A01 T01161016  RH  040%=      5-min Rain = 0
KTH1 202335Z 14009KT 12/M02 A3014 RMK A01 T01151018  RH  039%=      5-min Rain = 0
KTH1 202336Z 15009KT 12/M02 A3014 RMK A01 T01151018  RH  040%=      5-min Rain = 0
KTH1 202337Z 15010KT 11/M02 A3013 RMK A01 T01141019  RH  039%=      5-min Rain = 0
KTH1 202338Z 14008KT 11/M02 A3013 RMK A01 T01141019  RH  039%=      5-min Rain = 0
KTH1 202339Z 14010KT 11/M02 A3013 RMK A01 T01141017  RH  040%=      5-min Rain = 0
KTH1 202340Z 14010KT 11/M02 A3013 RMK A01 T01131018  RH  040%=      5-min Rain = 0
KTH1 202341Z 14009KT 11/M02 A3013 RMK A01 T01131018  RH  040%=      5-min Rain = 0
KTH1 202342Z 15009KT 11/M02 A3013 RMK A01 T01131017  RH  040%=      5-min Rain = 0
KTH1 202343Z 15010KT 11/M02 A3013 RMK A01 T01121018  RH  040%=      5-min Rain = 0
KTH1 202344Z 15008KT 11/M02 A3013 RMK A01 T01121019  RH  040%=      5-min Rain = 0
KTH1 202345Z 14009KT 11/M02 A3013 RMK A01 T01111017  RH  041%=      5-min Rain = 0
KTH1 202346Z 14009KT 11/M02 A3013 RMK A01 T01101016  RH  041%=      5-min Rain = 0
KTH1 202347Z 14009KT 11/M02 A3013 RMK A01 T01091016  RH  041%=      5-min Rain = 0
KTH1 202348Z 14009KT 11/M02 A3013 RMK A01 T01091017  RH  042%=      5-min Rain = 0
KTH1 202349Z 14009KT 11/M02 A3013 RMK A01 T01081016  RH  042%=      5-min Rain = 0
KTH1 202350Z 14009KT 11/M02 A3013 RMK A01 T01081017  RH  042%=      5-min Rain = 0
KTH1 202351Z 14010KT 11/M02 A3013 RMK A01 T01071017  RH  042%=      5-min Rain = 0
KTH1 202352Z 14009KT 11/M02 A3013 RMK A01 T01071018  RH  042%=      5-min Rain = 0
KTH1 202353Z 14009KT 11/M02 A3013 RMK A01 T01061018  RH  042%=      5-min Rain = 0
KTH1 202354Z 13008KT 11/M02 A3013 RMK A01 T01051018  RH  042%=      5-min Rain = 0
KTH1 202355Z 13007KT 11/M02 A3013 RMK A01 T01051016  RH  043%=      5-min Rain = 0
KTH1 202356Z 14008KT 10/M02 A3013 RMK A01 T01031016  RH  043%=      5-min Rain = 0
KTH1 202357Z 14008KT 10/M02 A3013 RMK A01 T01021017  RH  043%=      5-min Rain = 0
KTH1 202358Z 14007KT 10/M02 A3013 RMK A01 T01021017  RH  044%=      5-min Rain = 0
KTH1 202359Z 13008KT 10/M02 A3013 RMK A01 T01011016  RH  044%=      5-min Rain = 0
KTH1 210000Z 14007KT 10/M02 A3013 RMK A01 T01001016  RH  044%=      5-min Rain = 0
KTH1 210001Z 14007KT 10/M02 A3013 RMK A01 T01001016  RH  044%=      5-min Rain = 0
KTH1 210002Z 13007KT 10/M02 A3013 RMK A01 T00991016  RH  045%=      5-min Rain = 0
KTH1 210003Z 14007KT 10/M02 A3013 RMK A01 T00981016  RH  045%=      5-min Rain = 0
KTH1 210004Z 14007KT 10/M02 A3013 RMK A01 T00971015  RH  045%=      5-min Rain = 0
KTH1 210005Z 14008KT 10/M02 A3013 RMK A01 T00971016  RH  045%=      5-min Rain = 0
KTH1 210006Z 14008KT 10/M02 A3013 RMK A01 T00971017  RH  045%=      5-min Rain = 0
KTH1 210007Z 14007KT 10/M02 A3013 RMK A01 T00971016  RH  045%=      5-min Rain = 0
KTH1 210008Z 14007KT 10/M02 A3013 RMK A01 T00961016  RH  045%=      5-min Rain = 0
KTH1 210009Z 14008KT 10/M02 A3013 RMK A01 T00961016  RH  045%=      5-min Rain = 0
KTH1 210010Z 14008KT 10/M02 A3013 RMK A01 T00961017  RH  045%=      5-min Rain = 0
KTH1 210011Z 14008KT 10/M02 A3013 RMK A01 T00961017  RH  045%=      5-min Rain = 0
KTH1 210012Z 14009KT 10/M02 A3013 RMK A01 T00961017  RH  045%=      5-min Rain = 0
KTH1 210013Z 14008KT 10/M02 A3013 RMK A01 T00961017  RH  045%=      5-min Rain = 0
KTH1 210014Z 14010KT 10/M02 A3013 RMK A01 T00961018  RH  045%=      5-min Rain = 0
KTH1 210015Z 15008KT 10/M02 A3013 RMK A01 T00961018  RH  045%=      5-min Rain = 0
KTH1 210016Z 15009KT 10/M02 A3013 RMK A01 T00961017  RH  045%=      5-min Rain = 0
KTH1 210017Z 15009KT 10/M02 A3013 RMK A01 T00961017  RH  045%=      5-min Rain = 0
KTH1 210018Z 15008KT 10/M02 A3013 RMK A01 T00961017  RH  045%=      5-min Rain = 0
KTH1 210019Z 14009KT 10/M02 A3013 RMK A01 T00961016  RH  046%=      5-min Rain = 0
KTH1 210020Z 15008KT 10/M02 A3013 RMK A01 T00951016  RH  046%=      5-min Rain = 0
KTH1 210021Z 15009KT 09/M02 A3013 RMK A01 T00941017  RH  046%=      5-min Rain = 0
KTH1 210022Z 15008KT 09/M02 A3013 RMK A01 T00941017  RH  046%=      5-min Rain = 0
KTH1 210023Z 15008KT 09/M02 A3013 RMK A01 T00941016  RH  046%=      5-min Rain = 0
KTH1 210024Z 15009KT 09/M02 A3013 RMK A01 T00931016  RH  046%=      5-min Rain = 0
KTH1 210025Z 15009KT 09/M02 A3013 RMK A01 T00931016  RH  047%=      5-min Rain = 0
KTH1 210026Z 15008KT 09/M02 A3013 RMK A01 T00921016  RH  047%=      5-min Rain = 0
KTH1 210027Z 14008KT 09/M02 A3013 RMK A01 T00921016  RH  047%=      5-min Rain = 0
KTH1 210028Z 15008KT 09/M02 A3013 RMK A01 T00921016  RH  047%=      5-min Rain = 0
KTH1 210029Z 15009KT 09/M02 A3013 RMK A01 T00911016  RH  047%=      5-min Rain = 0
KTH1 210030Z 14009KT 09/M02 A3013 RMK A01 T00911017  RH  047%=      5-min Rain = 0
KTH1 210031Z 15009KT 09/M02 A3013 RMK A01 T00911016  RH  047%=      5-min Rain = 0
KTH1 210032Z 15009KT 09/M02 A3013 RMK A01 T00901016  RH  047%=      5-min Rain = 0
KTH1 210033Z 15008KT 09/M02 A3013 RMK A01 T00901016  RH  047%=      5-min Rain = 0
KTH1 210034Z 15008KT 09/M02 A3013 RMK A01 T00901016  RH  047%=      5-min Rain = 0
KTH1 210035Z 15009KT 09/M02 A3013 RMK A01 T00891017  RH  047%=      5-min Rain = 0
KTH1 210036Z 14007KT 09/M02 A3013 RMK A01 T00891017  RH  047%=      5-min Rain = 0
KTH1 210037Z 15009KT 09/M02 A3013 RMK A01 T00891018  RH  047%=      5-min Rain = 0
KTH1 210038Z 15009KT 09/M02 A3013 RMK A01 T00891018  RH  047%=      5-min Rain = 0
KTH1 210039Z 15009KT 09/M02 A3013 RMK A01 T00891019  RH  047%=      5-min Rain = 0
KTH1 210040Z 15009KT 09/M02 A3013 RMK A01 T00891019  RH  047%=      5-min Rain = 0
KTH1 210041Z 15008KT 09/M02 A3013 RMK A01 T00891019  RH  047%=      5-min Rain = 0
KTH1 210042Z 15009KT 09/M02 A3013 RMK A01 T00891019  RH  047%=      5-min Rain = 0
KTH1 210043Z 15008KT 09/M02 A3013 RMK A01 T00881019  RH  047%=      5-min Rain = 0
KTH1 210044Z 15009KT 09/M02 A3013 RMK A01 T00881020  RH  047%=      5-min Rain = 0
KTH1 210045Z 15008KT 09/M02 A3013 RMK A01 T00881020  RH  047%=      5-min Rain = 0
KTH1 210046Z 15008KT 09/M02 A3013 RMK A01 T00871020  RH  047%=      5-min Rain = 0
KTH1 210047Z 15009KT 09/M02 A3013 RMK A01 T00871020  RH  047%=      5-min Rain = 0
KTH1 210048Z 14009KT 09/M02 A3013 RMK A01 T00871021  RH  047%=      5-min Rain = 0
KTH1 210049Z 15009KT 09/M02 A3013 RMK A01 T00871021  RH  047%=      5-min Rain = 0
KTH1 210050Z 15010KT 09/M02 A3013 RMK A01 T00871021  RH  047%=      5-min Rain = 0
KTH1 210051Z 15009KT 09/M02 A3013 RMK A01 T00861022  RH  046%=      5-min Rain = 0
KTH1 210052Z 15008KT 09/M02 A3013 RMK A01 T00861022  RH  047%=      5-min Rain = 0
KTH1 210053Z 15009KT 09/M02 A3013 RMK A01 T00861021  RH  047%=      5-min Rain = 0
KTH1 210054Z 15008KT 09/M02 A3013 RMK A01 T00851021  RH  047%=      5-min Rain = 0
KTH1 210055Z 15008KT 09/M02 A3013 RMK A01 T00851022  RH  047%=      5-min Rain = 0
KTH1 210056Z 15008KT 09/M02 A3013 RMK A01 T00851021  RH  047%=      5-min Rain = 0
KTH1 210057Z 15008KT 09/M02 A3013 RMK A01 T00851022  RH  047%=      5-min Rain = 0
KTH1 210058Z 15008KT 08/M02 A3013 RMK A01 T00841021  RH  047%=      5-min Rain = 0
KTH1 210059Z 15008KT 08/M02 A3013 RMK A01 T00841022  RH  047%=      5-min Rain = 0
KTH1 210100Z 15008KT 08/M02 A3013 RMK A01 T00841022  RH  047%=      5-min Rain = 0
KTH1 210101Z 15009KT 08/M02 A3013 RMK A01 T00841022  RH  047%=      5-min Rain = 0
KTH1 210102Z 15008KT 08/M02 A3013 RMK A01 T00841022  RH  047%=      5-min Rain = 0
KTH1 210103Z 14010KT 08/M02 A3013 RMK A01 T00831022  RH  048%=      5-min Rain = 0
KTH1 210104Z 15009KT 08/M02 A3013 RMK A01 T00831023  RH  047%=      5-min Rain = 0
KTH1 210105Z 15008KT 08/M02 A3013 RMK A01 T00831022  RH  048%=      5-min Rain = 0
KTH1 210106Z 15008KT 08/M02 A3013 RMK A01 T00821022  RH  048%=      5-min Rain = 0
KTH1 210107Z 15008KT 08/M02 A3013 RMK A01 T00821022  RH  048%=      5-min Rain = 0
KTH1 210108Z 15009KT 08/M02 A3013 RMK A01 T00821023  RH  048%=      5-min Rain = 0
KTH1 210109Z 15007KT 08/M02 A3013 RMK A01 T00811022  RH  048%=      5-min Rain = 0
KTH1 210110Z 15008KT 08/M02 A3013 RMK A01 T00811022  RH  048%=      5-min Rain = 0
KTH1 210111Z 15008KT 08/M02 A3013 RMK A01 T00811022  RH  048%=      5-min Rain = 0
KTH1 210112Z 15008KT 08/M02 A3013 RMK A01 T00801022  RH  048%=      5-min Rain = 0
KTH1 210113Z 15007KT 08/M02 A3013 RMK A01 T00801022  RH  048%=      5-min Rain = 0
KTH1 210114Z 15008KT 08/M02 A3013 RMK A01 T00801022  RH  048%=      5-min Rain = 0
KTH1 210115Z 15009KT 08/M02 A3013 RMK A01 T00801022  RH  048%=      5-min Rain = 0
KTH1 210116Z 15008KT 08/M02 A3013 RMK A01 T00801022  RH  049%=      5-min Rain = 0
KTH1 210117Z 15008KT 08/M02 A3013 RMK A01 T00801022  RH  049%=      5-min Rain = 0
KTH1 210118Z 15009KT 08/M02 A3013 RMK A01 T00801022  RH  049%=      5-min Rain = 0
KTH1 210119Z 15009KT 08/M02 A3013 RMK A01 T00791022  RH  049%=      5-min Rain = 0
KTH1 210120Z 15009KT 08/M02 A3013 RMK A01 T00801021  RH  049%=      5-min Rain = 0
KTH1 210121Z 15009KT 08/M02 A3013 RMK A01 T00801021  RH  049%=      5-min Rain = 0
KTH1 210122Z 15008KT 08/M02 A3013 RMK A01 T00791021  RH  049%=      5-min Rain = 0
KTH1 210123Z 15008KT 08/M02 A3013 RMK A01 T00791020  RH  049%=      5-min Rain = 0
KTH1 210124Z 15009KT 08/M02 A3013 RMK A01 T00781020  RH  050%=      5-min Rain = 0
KTH1 210125Z 15008KT 08/M02 A3013 RMK A01 T00781020  RH  050%=      5-min Rain = 0
KTH1 210126Z 15008KT 08/M02 A3013 RMK A01 T00771020  RH  050%=      5-min Rain = 0
KTH1 210127Z 15008KT 08/M02 A3013 RMK A01 T00771020  RH  050%=      5-min Rain = 0
KTH1 210128Z 15007KT 08/M02 A3013 RMK A01 T00761020  RH  050%=      5-min Rain = 0
KTH1 210129Z 15007KT 08/M02 A3013 RMK A01 T00761020  RH  051%=      5-min Rain = 0
KTH1 210130Z 15008KT 08/M02 A3013 RMK A01 T00761020  RH  051%=      5-min Rain = 0
KTH1 210131Z 15008KT 08/M02 A3013 RMK A01 T00751019  RH  051%=      5-min Rain = 0
KTH1 210132Z 15008KT 08/M02 A3013 RMK A01 T00751020  RH  051%=      5-min Rain = 0
KTH1 210133Z 14008KT 08/M02 A3013 RMK A01 T00751019  RH  051%=      5-min Rain = 0
KTH1 210134Z 14008KT 07/M02 A3013 RMK A01 T00741019  RH  052%=      5-min Rain = 0
KTH1 210135Z 14008KT 07/M02 A3013 RMK A01 T00741019  RH  051%=      5-min Rain = 0
KTH1 210136Z 15008KT 07/M02 A3013 RMK A01 T00741020  RH  051%=      5-min Rain = 0
KTH1 210137Z 14008KT 07/M02 A3013 RMK A01 T00741019  RH  052%=      5-min Rain = 0
KTH1 210138Z 15008KT 07/M02 A3013 RMK A01 T00741019  RH  052%=      5-min Rain = 0
KTH1 210139Z 14009KT 07/M02 A3013 RMK A01 T00731020  RH  052%=      5-min Rain = 0
KTH1 210140Z 14008KT 07/M02 A3013 RMK A01 T00731019  RH  052%=      5-min Rain = 0
KTH1 210141Z 15008KT 07/M02 A3013 RMK A01 T00731019  RH  052%=      5-min Rain = 0
KTH1 210142Z 14008KT 07/M02 A3013 RMK A01 T00721019  RH  052%=      5-min Rain = 0
KTH1 210143Z 14008KT 07/M02 A3013 RMK A01 T00721020  RH  052%=      5-min Rain = 0
KTH1 210144Z 15008KT 07/M02 A3013 RMK A01 T00721019  RH  052%=      5-min Rain = 0
KTH1 210145Z 14008KT 07/M02 A3013 RMK A01 T00721019  RH  052%=      5-min Rain = 0
KTH1 210146Z 14008KT 07/M02 A3013 RMK A01 T00711019  RH  052%=      5-min Rain = 0
KTH1 210147Z 14009KT 07/M02 A3013 RMK A01 T00711020  RH  052%=      5-min Rain = 0
KTH1 210148Z 14009KT 07/M02 A3013 RMK A01 T00711020  RH  052%=      5-min Rain = 0
KTH1 210149Z 15008KT 07/M02 A3013 RMK A01 T00711020  RH  052%=      5-min Rain = 0
KTH1 210150Z 15009KT 07/M02 A3013 RMK A01 T00711020  RH  052%=      5-min Rain = 0
KTH1 210151Z 15009KT 07/M02 A3013 RMK A01 T00711020  RH  053%=      5-min Rain = 0
KTH1 210152Z 15009KT 07/M02 A3013 RMK A01 T00701020  RH  053%=      5-min Rain = 0
KTH1 210153Z 15008KT 07/M02 A3013 RMK A01 T00701019  RH  053%=      5-min Rain = 0
KTH1 210154Z 14009KT 07/M02 A3013 RMK A01 T00701019  RH  053%=      5-min Rain = 0
KTH1 210155Z 15009KT 07/M02 A3013 RMK A01 T00691019  RH  053%=      5-min Rain = 0
KTH1 210156Z 14009KT 07/M02 A3013 RMK A01 T00691019  RH  053%=      5-min Rain = 0
KTH1 210157Z 14009KT 07/M02 A3013 RMK A01 T00691020  RH  053%=      5-min Rain = 0
KTH1 210158Z 14008KT 07/M02 A3013 RMK A01 T00691020  RH  053%=      5-min Rain = 0
KTH1 210159Z 14008KT 07/M02 A3013 RMK A01 T00691019  RH  053%=      5-min Rain = 0
KTH1 210200Z 14008KT 07/M02 A3013 RMK A01 T00691020  RH  053%=      5-min Rain = 0
KTH1 210201Z 14008KT 07/M02 A3013 RMK A01 T00691020  RH  053%=      5-min Rain = 0
KTH1 210202Z 14009KT 07/M02 A3013 RMK A01 T00681020  RH  053%=      5-min Rain = 0
KTH1 210203Z 14009KT 07/M02 A3013 RMK A01 T00681020  RH  054%=      5-min Rain = 0
KTH1 210204Z 14009KT 07/M02 A3013 RMK A01 T00681020  RH  053%=      5-min Rain = 0
KTH1 210205Z 14008KT 07/M02 A3013 RMK A01 T00681020  RH  053%=      5-min Rain = 0
KTH1 210206Z 14008KT 07/M02 A3013 RMK A01 T00681021  RH  053%=      5-min Rain = 0
KTH1 210207Z 14009KT 07/M02 A3013 RMK A01 T00681020  RH  053%=      5-min Rain = 0
KTH1 210208Z 14009KT 07/M02 A3013 RMK A01 T00681021  RH  053%=      5-min Rain = 0
KTH1 210209Z 14009KT 07/M02 A3013 RMK A01 T00671021  RH  054%=      5-min Rain = 0
KTH1 210210Z 14009KT 07/M02 A3013 RMK A01 T00671020  RH  054%=      5-min Rain = 0
KTH1 210211Z 14009KT 07/M02 A3013 RMK A01 T00671021  RH  053%=      5-min Rain = 0
KTH1 210212Z 15009KT 07/M02 A3013 RMK A01 T00671020  RH  054%=      5-min Rain = 0
KTH1 210213Z 14009KT 07/M02 A3013 RMK A01 T00671020  RH  054%=      5-min Rain = 0
KTH1 210214Z 15009KT 07/M02 A3012 RMK A01 T00661020  RH  054%=      5-min Rain = 0
KTH1 210215Z 14009KT 07/M02 A3012 RMK A01 T00661020  RH  054%=      5-min Rain = 0
KTH1 210216Z 14008KT 07/M02 A3012 RMK A01 T00661020  RH  054%=      5-min Rain = 0
KTH1 210217Z 15009KT 07/M02 A3012 RMK A01 T00651019  RH  055%=      5-min Rain = 0
KTH1 210218Z 15009KT 07/M02 A3012 RMK A01 T00651019  RH  055%=      5-min Rain = 0
KTH1 210219Z 15009KT 06/M02 A3012 RMK A01 T00641020  RH  055%=      5-min Rain = 0
KTH1 210220Z 15008KT 06/M02 A3012 RMK A01 T00641019  RH  055%=      5-min Rain = 0
KTH1 210221Z 15009KT 06/M02 A3012 RMK A01 T00631020  RH  055%=      5-min Rain = 0
KTH1 210222Z 15008KT 06/M02 A3012 RMK A01 T00631020  RH  056%=      5-min Rain = 0
KTH1 210223Z 15008KT 06/M02 A3012 RMK A01 T00631019  RH  056%=      5-min Rain = 0
KTH1 210224Z 15008KT 06/M02 A3012 RMK A01 T00621019  RH  056%=      5-min Rain = 0
KTH1 210225Z 15008KT 06/M02 A3012 RMK A01 T00611019  RH  056%=      5-min Rain = 0
KTH1 210226Z 15008KT 06/M02 A3012 RMK A01 T00611019  RH  057%=      5-min Rain = 0
KTH1 210227Z 15008KT 06/M02 A3012 RMK A01 T00611019  RH  057%=      5-min Rain = 0
KTH1 210228Z 15008KT 06/M02 A3012 RMK A01 T00601019  RH  057%=      5-min Rain = 0
KTH1 210229Z 15007KT 06/M02 A3012 RMK A01 T00601019  RH  057%=      5-min Rain = 0
KTH1 210230Z 15008KT 06/M02 A3012 RMK A01 T00601018  RH  057%=      5-min Rain = 0
KTH1 210231Z 15008KT 06/M02 A3012 RMK A01 T00591019  RH  057%=      5-min Rain = 0
KTH1 210232Z 15007KT 06/M02 A3012 RMK A01 T00591019  RH  057%=      5-min Rain = 0
KTH1 210233Z 15007KT 06/M02 A3012 RMK A01 T00591018  RH  058%=      5-min Rain = 0
KTH1 210234Z 15007KT 06/M02 A3012 RMK A01 T00581018  RH  058%=      5-min Rain = 0
KTH1 210235Z 15008KT 06/M02 A3012 RMK A01 T00581018  RH  058%=      5-min Rain = 0
KTH1 210236Z 15007KT 06/M02 A3012 RMK A01 T00581018  RH  058%=      5-min Rain = 0
KTH1 210237Z 15007KT 06/M02 A3012 RMK A01 T00581018  RH  058%=      5-min Rain = 0
KTH1 210238Z 15007KT 06/M02 A3012 RMK A01 T00581019  RH  058%=      5-min Rain = 0
KTH1 210239Z 15007KT 06/M02 A3012 RMK A01 T00581019  RH  058%=      5-min Rain = 0
KTH1 210240Z 15007KT 06/M02 A3012 RMK A01 T00581019  RH  058%=      5-min Rain = 0
KTH1 210241Z 15007KT 06/M02 A3012 RMK A01 T00581019  RH  058%=      5-min Rain = 0
KTH1 210242Z 15007KT 06/M02 A3012 RMK A01 T00581019  RH  058%=      5-min Rain = 0
KTH1 210243Z 15007KT 06/M02 A3012 RMK A01 T00571019  RH  058%=      5-min Rain = 0
KTH1 210244Z 15008KT 06/M02 A3012 RMK A01 T00571019  RH  058%=      5-min Rain = 0
KTH1 210245Z 15007KT 06/M02 A3012 RMK A01 T00571020  RH  058%=      5-min Rain = 0
KTH1 210246Z 14007KT 06/M02 A3012 RMK A01 T00571019  RH  058%=      5-min Rain = 0
KTH1 210247Z 15007KT 06/M02 A3012 RMK A01 T00571019  RH  058%=      5-min Rain = 0
KTH1 210248Z 15007KT 06/M02 A3012 RMK A01 T00571019  RH  058%=      5-min Rain = 0
KTH1 210249Z 15008KT 06/M02 A3012 RMK A01 T00571019  RH  058%=      5-min Rain = 0
KTH1 210250Z 15008KT 06/M02 A3012 RMK A01 T00561019  RH  058%=      5-min Rain = 0
KTH1 210251Z 15008KT 06/M02 A3012 RMK A01 T00561019  RH  058%=      5-min Rain = 0
KTH1 210252Z 15008KT 06/M02 A3012 RMK A01 T00561019  RH  058%=      5-min Rain = 0
KTH1 210253Z 15008KT 06/M02 A3012 RMK A01 T00561019  RH  058%=      5-min Rain = 0
KTH1 210254Z 15008KT 06/M02 A3012 RMK A01 T00561019  RH  058%=      5-min Rain = 0
KTH1 210255Z 15008KT 06/M02 A3012 RMK A01 T00551019  RH  059%=      5-min Rain = 0
KTH1 210256Z 15007KT 06/M02 A3012 RMK A01 T00551019  RH  059%=      5-min Rain = 0
KTH1 210257Z 15008KT 05/M02 A3012 RMK A01 T00541019  RH  059%=      5-min Rain = 0
KTH1 210258Z 15007KT 05/M02 A3012 RMK A01 T00541019  RH  059%=      5-min Rain = 0
KTH1 210259Z 15007KT 05/M02 A3012 RMK A01 T00541019  RH  059%=      5-min Rain = 0
KTH1 210300Z 15008KT 05/M02 A3012 RMK A01 T00541019  RH  059%=      5-min Rain = 0
KTH1 210301Z 15008KT 05/M02 A3011 RMK A01 T00541019  RH  059%=      5-min Rain = 0
KTH1 210302Z 15007KT 05/M02 A3011 RMK A01 T00541019  RH  059%=      5-min Rain = 0
KTH1 210303Z 15007KT 05/M02 A3011 RMK A01 T00531019  RH  059%=      5-min Rain = 0
KTH1 210304Z 15007KT 05/M02 A3011 RMK A01 T00531019  RH  060%=      5-min Rain = 0
KTH1 210305Z 15007KT 05/M02 A3011 RMK A01 T00531019  RH  060%=      5-min Rain = 0
KTH1 210306Z 15007KT 05/M02 A3011 RMK A01 T00531019  RH  060%=      5-min Rain = 0
KTH1 210307Z 15007KT 05/M02 A3011 RMK A01 T00531019  RH  060%=      5-min Rain = 0
KTH1 210308Z 15006KT 05/M02 A3011 RMK A01 T00531020  RH  059%=      5-min Rain = 0
KTH1 210309Z 15008G13KT 05/M02 A3011 RMK A01 T00531020  RH  059%=      5-min Rain = 0
KTH1 210310Z 15007KT 05/M02 A3011 RMK A01 T00541020  RH  059%=      5-min Rain = 0
KTH1 210311Z 15007KT 05/M02 A3011 RMK A01 T00541020  RH  059%=      5-min Rain = 0
KTH1 210312Z 15007KT 05/M02 A3011 RMK A01 T00541020  RH  059%=      5-min Rain = 0
KTH1 210313Z 15007KT 05/M02 A3011 RMK A01 T00541020  RH  059%=      5-min Rain = 0
KTH1 210314Z 15008KT 05/M02 A3011 RMK A01 T00531020  RH  059%=      5-min Rain = 0
KTH1 210315Z 15007KT 05/M02 A3011 RMK A01 T00531020  RH  059%=      5-min Rain = 0
KTH1 210316Z 15006KT 05/M02 A3011 RMK A01 T00531020  RH  059%=      5-min Rain = 0
KTH1 210317Z 14007KT 05/M02 A3011 RMK A01 T00541020  RH  059%=      5-min Rain = 0
KTH1 210318Z 15009KT 05/M02 A3011 RMK A01 T00531020  RH  059%=      5-min Rain = 0
KTH1 210319Z 15007KT 05/M02 A3011 RMK A01 T00541020  RH  059%=      5-min Rain = 0
KTH1 210320Z 15007KT 05/M02 A3011 RMK A01 T00541020  RH  059%=      5-min Rain = 0
KTH1 210321Z 14008KT 05/M02 A3011 RMK A01 T00541020  RH  059%=      5-min Rain = 0
KTH1 210322Z 14007KT 05/M02 A3011 RMK A01 T00541019  RH  059%=      5-min Rain = 0
KTH1 210323Z 15008KT 05/M02 A3011 RMK A01 T00531019  RH  059%=      5-min Rain = 0
KTH1 210324Z 15008KT 05/M02 A3011 RMK A01 T00531020  RH  059%=      5-min Rain = 0
KTH1 210325Z 14009KT 05/M02 A3011 RMK A01 T00531020  RH  059%=      5-min Rain = 0
KTH1 210326Z 15007KT 05/M02 A3011 RMK A01 T00531020  RH  059%=      5-min Rain = 0
KTH1 210327Z 14006KT 05/M02 A3011 RMK A01 T00531019  RH  059%=      5-min Rain = 0
KTH1 210328Z 15007KT 05/M02 A3011 RMK A01 T00531019  RH  060%=      5-min Rain = 0
KTH1 210329Z 15007KT 05/M02 A3011 RMK A01 T00531019  RH  060%=      5-min Rain = 0
KTH1 210330Z 15006KT 05/M02 A3011 RMK A01 T00531020  RH  059%=      5-min Rain = 0
KTH1 210331Z 15006KT 05/M02 A3011 RMK A01 T00531020  RH  059%=      5-min Rain = 0
KTH1 210332Z 15007KT 05/M02 A3011 RMK A01 T00531020  RH  059%=      5-min Rain = 0
KTH1 210333Z 15005KT 05/M02 A3011 RMK A01 T00531019  RH  060%=      5-min Rain = 0
KTH1 210334Z 15008KT 05/M02 A3011 RMK A01 T00531019  RH  060%=      5-min Rain = 0
KTH1 210335Z 15006KT 05/M02 A301 RMK A01 T00531020  RH  059%=      5-min Rain = 0
KTH1 210336Z 15008KT 05/M02 A301 RMK A01 T00531020  RH  059%=      5-min Rain = 0
KTH1 210337Z 15006KT 05/M02 A301 RMK A01 T00541019  RH  059%=      5-min Rain = 0
KTH1 210338Z 15007KT 05/M02 A301 RMK A01 T00531019  RH  060%=      5-min Rain = 0
KTH1 210339Z 15008KT 05/M02 A301 RMK A01 T00531020  RH  059%=      5-min Rain = 0
KTH1 210340Z 15007KT 05/M02 A301 RMK A01 T00541019  RH  059%=      5-min Rain = 0
KTH1 210341Z 15007KT 05/M02 A301 RMK A01 T00541019  RH  059%=      5-min Rain = 0
KTH1 210342Z 15007KT 05/M02 A301 RMK A01 T00531019  RH  060%=      5-min Rain = 0
KTH1 210343Z 15009KT 05/M02 A301 RMK A01 T00531019  RH  060%=      5-min Rain = 0
KTH1 210344Z 15007KT 05/M02 A301 RMK A01 T00531019  RH  060%=      5-min Rain = 0
KTH1 210345Z 15006KT 05/M02 A301 RMK A01 T00531019  RH  060%=      5-min Rain = 0
KTH1 210346Z 15007KT 05/M02 A301 RMK A01 T00531019  RH  060%=      5-min Rain = 0
KTH1 210347Z 15007KT 05/M02 A301 RMK A01 T00531019  RH  060%=      5-min Rain = 0
KTH1 210348Z 15006KT 05/M02 A301 RMK A01 T00531019  RH  060%=      5-min Rain = 0
KTH1 210349Z 15006KT 05/M02 A301 RMK A01 T00531019  RH  060%=      5-min Rain = 0
KTH1 210350Z 15007KT 05/M02 A301 RMK A01 T00531019  RH  060%=      5-min Rain = 0
KTH1 210351Z 15007KT 05/M02 A301 RMK A01 T00531019  RH  060%=      5-min Rain = 0
KTH1 210352Z 15006KT 05/M02 A301 RMK A01 T00521019  RH  060%=      5-min Rain = 0
KTH1 210353Z 16009KT 05/M02 A301 RMK A01 T00521019  RH  060%=      5-min Rain = 0
KTH1 210354Z 15007KT 05/M02 A301 RMK A01 T00521019  RH  060%=      5-min Rain = 0
KTH1 210355Z 15006KT 05/M02 A301 RMK A01 T00521019  RH  060%=      5-min Rain = 0
KTH1 210356Z 15007KT 05/M02 A301 RMK A01 T00531019  RH  060%=      5-min Rain = 0
KTH1 210357Z 15007KT 05/M02 A301 RMK A01 T00531019  RH  060%=      5-min Rain = 0
KTH1 210358Z 15008KT 05/M02 A301 RMK A01 T00521019  RH  060%=      5-min Rain = 0
KTH1 210359Z 16007KT 05/M02 A301 RMK A01 T00521019  RH  060%=      5-min Rain = 0
KTH1 210400Z 15007KT 05/M02 A301 RMK A01 T00521018  RH  060%=      5-min Rain = 0
KTH1 210401Z 15007KT 05/M02 A301 RMK A01 T00521019  RH  060%=      5-min Rain = 0
KTH1 210402Z 15008KT 05/M02 A301 RMK A01 T00511019  RH  061%=      5-min Rain = 0
KTH1 210403Z 15007KT 05/M02 A3009 RMK A01 T00511019  RH  061%=      5-min Rain = 0
KTH1 210404Z 16006KT 05/M02 A3009 RMK A01 T00511019  RH  061%=      5-min Rain = 0
KTH1 210405Z 15005KT 05/M02 A3009 RMK A01 T00511018  RH  061%=      5-min Rain = 0
KTH1 210406Z 15007KT 05/M02 A3009 RMK A01 T00501018  RH  061%=      5-min Rain = 0
KTH1 210407Z 15006KT 05/M02 A3009 RMK A01 T00501019  RH  061%=      5-min Rain = 0
KTH1 210408Z 15007KT 05/M02 A3009 RMK A01 T00501019  RH  061%=      5-min Rain = 0
KTH1 210409Z 15008KT 05/M02 A3009 RMK A01 T00501019  RH  061%=      5-min Rain = 0
KTH1 210410Z 15006KT 05/M02 A3009 RMK A01 T00501019  RH  061%=      5-min Rain = 0
KTH1 210411Z 15007KT 05/M02 A3009 RMK A01 T00501019  RH  061%=      5-min Rain = 0
KTH1 210412Z 15007KT 05/M02 A3009 RMK A01 T00501018  RH  061%=      5-min Rain = 0
KTH1 210413Z 15007KT 05/M02 A3009 RMK A01 T00501018  RH  061%=      5-min Rain = 0
KTH1 210414Z 15007KT 05/M02 A3009 RMK A01 T00501018  RH  061%=      5-min Rain = 0
KTH1 210415Z 15007KT 05/M02 A3009 RMK A01 T00501018  RH  061%=      5-min Rain = 0
KTH1 210416Z 15007KT 05/M02 A3009 RMK A01 T00491018  RH  062%=      5-min Rain = 0
KTH1 210417Z 15007KT 05/M02 A3009 RMK A01 T00491019  RH  062%=      5-min Rain = 0
KTH1 210418Z 14006KT 05/M02 A3009 RMK A01 T00491018  RH  062%=      5-min Rain = 0
KTH1 210419Z 15007KT 05/M02 A3009 RMK A01 T00491019  RH  062%=      5-min Rain = 0
KTH1 210420Z 15006KT 05/M02 A3009 RMK A01 T00481019  RH  062%=      5-min Rain = 0
KTH1 210421Z 15008KT 05/M02 A3009 RMK A01 T00491018  RH  062%=      5-min Rain = 0
KTH1 210422Z 15006KT 05/M02 A3009 RMK A01 T00491018  RH  062%=      5-min Rain = 0
KTH1 210423Z 15007KT 05/M02 A3009 RMK A01 T00491018  RH  062%=      5-min Rain = 0
KTH1 210424Z 14007KT 05/M02 A3009 RMK A01 T00491019  RH  062%=      5-min Rain = 0
KTH1 210425Z 14006KT 05/M02 A3009 RMK A01 T00481019  RH  061%=      5-min Rain = 0
KTH1 210426Z 14006KT 05/M02 A3009 RMK A01 T00481019  RH  062%=      5-min Rain = 0
KTH1 210427Z 14007KT 05/M02 A3009 RMK A01 T00481019  RH  062%=      5-min Rain = 0
KTH1 210428Z 14005G10KT 05/M02 A3009 RMK A01 T00481019  RH  062%=      5-min Rain = 0
KTH1 210429Z 14007KT 05/M02 A3009 RMK A01 T00481019  RH  062%=      5-min Rain = 0
KTH1 210430Z 14007KT 05/M02 A3009 RMK A01 T00481019  RH  062%=      5-min Rain = 0
KTH1 210431Z 14007KT 05/M02 A3009 RMK A01 T00481019  RH  062%=      5-min Rain = 0
KTH1 210432Z 14007KT 05/M02 A3009 RMK A01 T00481019  RH  062%=      5-min Rain = 0
KTH1 210433Z 14008KT 05/M02 A3009 RMK A01 T00481019  RH  062%=      5-min Rain = 0
KTH1 210434Z 15007KT 05/M02 A3009 RMK A01 T00471019  RH  062%=      5-min Rain = 0
KTH1 210435Z 14007KT 05/M02 A3009 RMK A01 T00471019  RH  062%=      5-min Rain = 0
KTH1 210436Z 14008KT 05/M02 A3009 RMK A01 T00471019  RH  062%=      5-min Rain = 0
KTH1 210437Z 14008KT 05/M02 A3009 RMK A01 T00471020  RH  062%=      5-min Rain = 0
KTH1 210438Z 15007KT 05/M02 A3009 RMK A01 T00471020  RH  062%=      5-min Rain = 0
KTH1 210439Z 14008KT 05/M02 A3009 RMK A01 T00471019  RH  062%=      5-min Rain = 0
KTH1 210440Z 15006KT 05/M02 A3009 RMK A01 T00471020  RH  062%=      5-min Rain = 0
KTH1 210441Z 14007KT 05/M02 A3009 RMK A01 T00471019  RH  062%=      5-min Rain = 0
KTH1 210442Z 15008KT 05/M02 A3009 RMK A01 T00471019  RH  062%=      5-min Rain = 0
KTH1 210443Z 14009KT 05/M02 A3009 RMK A01 T00471020  RH  062%=      5-min Rain = 0
KTH1 210444Z 14009KT 05/M02 A3009 RMK A01 T00481020  RH  062%=      5-min Rain = 0
KTH1 210445Z 14007KT 05/M02 A3009 RMK A01 T00481020  RH  062%=      5-min Rain = 0
KTH1 210446Z 15008KT 05/M02 A3009 RMK A01 T00481020  RH  062%=      5-min Rain = 0
KTH1 210447Z 14007KT 05/M02 A3009 RMK A01 T00481020  RH  061%=      5-min Rain = 0
KTH1 210448Z 14008KT 05/M02 A3009 RMK A01 T00481020  RH  061%=      5-min Rain = 0
KTH1 210449Z 14008KT 05/M02 A3009 RMK A01 T00481020  RH  061%=      5-min Rain = 0
KTH1 210450Z 15008KT 05/M02 A3009 RMK A01 T00481020  RH  061%=      5-min Rain = 0
KTH1 210451Z 15008KT 05/M02 A3009 RMK A01 T00481020  RH  061%=      5-min Rain = 0
KTH1 210452Z 14007KT 05/M02 A3009 RMK A01 T00481019  RH  061%=      5-min Rain = 0
KTH1 210453Z 14008KT 05/M02 A3009 RMK A01 T00481019  RH  062%=      5-min Rain = 0
KTH1 210454Z 14007KT 05/M02 A3009 RMK A01 T00481020  RH  062%=      5-min Rain = 0
KTH1 210455Z 14008KT 05/M02 A3009 RMK A01 T00481019  RH  062%=      5-min Rain = 0
KTH1 210456Z 14008KT 05/M02 A3009 RMK A01 T00481019  RH  062%=      5-min Rain = 0
KTH1 210457Z 14006KT 05/M02 A3009 RMK A01 T00481020  RH  061%=      5-min Rain = 0
KTH1 210458Z 15007KT 05/M02 A3009 RMK A01 T00481019  RH  062%=      5-min Rain = 0
KTH1 210459Z 15009KT 05/M02 A3009 RMK A01 T00481020  RH  061%=      5-min Rain = 0
KTH1 210500Z 14007KT 05/M02 A3009 RMK A01 T00481020  RH  061%=      5-min Rain = 0
KTH1 210501Z 14009KT 05/M02 A3009 RMK A01 T00481019  RH  062%=      5-min Rain = 0
KTH1 210502Z 15008KT 05/M02 A3009 RMK A01 T00481020  RH  062%=      5-min Rain = 0
KTH1 210503Z 14007KT 05/M02 A3009 RMK A01 T00471020  RH  062%=      5-min Rain = 0
KTH1 210504Z 14008KT 05/M02 A3009 RMK A01 T00471020  RH  062%=      5-min Rain = 0
KTH1 210505Z 15010KT 05/M02 A3009 RMK A01 T00471020  RH  062%=      5-min Rain = 0
KTH1 210506Z 15008KT 05/M02 A3009 RMK A01 T00471020  RH  061%=      5-min Rain = 0
KTH1 210507Z 14008KT 05/M02 A3009 RMK A01 T00481020  RH  061%=      5-min Rain = 0
KTH1 210508Z 15008KT 05/M02 A3009 RMK A01 T00471020  RH  061%=      5-min Rain = 0
KTH1 210509Z 14007KT 05/M02 A3009 RMK A01 T00481020  RH  062%=      5-min Rain = 0
KTH1 210510Z 15007KT 05/M02 A3009 RMK A01 T00471020  RH  062%=      5-min Rain = 0
KTH1 210511Z 14007KT 05/M02 A3009 RMK A01 T00471020  RH  062%=      5-min Rain = 0
KTH1 210512Z 15008KT 05/M02 A3009 RMK A01 T00471020  RH  062%=      5-min Rain = 0
KTH1 210513Z 15008KT 05/M02 A3009 RMK A01 T00471020  RH  062%=      5-min Rain = 0
KTH1 210514Z 15007KT 05/M02 A3009 RMK A01 T00471020  RH  062%=      5-min Rain = 0
KTH1 210515Z 15007KT 05/M02 A3009 RMK A01 T00461020  RH  062%=      5-min Rain = 0
KTH1 210516Z 15006KT 05/M02 A3009 RMK A01 T00461020  RH  062%=      5-min Rain = 0
KTH1 210517Z 14007KT 05/M02 A3009 RMK A01 T00451019  RH  063%=      5-min Rain = 0
KTH1 210518Z 15008KT 04/M02 A3009 RMK A01 T00441020  RH  063%=      5-min Rain = 0
KTH1 210519Z 14007KT 04/M02 A3009 RMK A01 T00441020  RH  063%=      5-min Rain = 0
KTH1 210520Z 15007KT 04/M02 A3009 RMK A01 T00441020  RH  063%=      5-min Rain = 0
KTH1 210521Z 14006KT 04/M02 A3009 RMK A01 T00441019  RH  063%=      5-min Rain = 0
KTH1 210522Z 15007KT 04/M02 A3009 RMK A01 T00441020  RH  063%=      5-min Rain = 0
KTH1 210523Z 14007KT 04/M02 A3009 RMK A01 T00441020  RH  063%=      5-min Rain = 0
KTH1 210524Z 14007KT 04/M02 A3009 RMK A01 T00441020  RH  063%=      5-min Rain = 0
KTH1 210525Z 14007KT 04/M02 A3009 RMK A01 T00441020  RH  063%=      5-min Rain = 0
KTH1 210526Z 14008KT 04/M02 A3009 RMK A01 T00441020  RH  063%=      5-min Rain = 0
KTH1 210527Z 14008KT 04/M02 A3009 RMK A01 T00441020  RH  063%=      5-min Rain = 0
KTH1 210528Z 15006KT 05/M02 A3009 RMK A01 T00451020  RH  063%=      5-min Rain = 0
KTH1 210529Z 15007KT 05/M02 A3009 RMK A01 T00451020  RH  063%=      5-min Rain = 0
KTH1 210530Z 15007KT 04/M02 A3009 RMK A01 T00441020  RH  063%=      5-min Rain = 0
KTH1 210531Z 15007KT 04/M02 A3009 RMK A01 T00441020  RH  063%=      5-min Rain = 0
KTH1 210532Z 15007KT 04/M02 A3009 RMK A01 T00431020  RH  064%=      5-min Rain = 0
KTH1 210533Z 14008KT 04/M02 A3009 RMK A01 T00431020  RH  064%=      5-min Rain = 0
KTH1 210534Z 15006KT 04/M02 A3009 RMK A01 T00431020  RH  064%=      5-min Rain = 0
KTH1 210535Z 15005KT 04/M02 A3009 RMK A01 T00431020  RH  064%=      5-min Rain = 0
KTH1 210536Z 14007KT 04/M02 A3009 RMK A01 T00431020  RH  064%=      5-min Rain = 0
KTH1 210537Z 15007KT 04/M02 A3009 RMK A01 T00421020  RH  064%=      5-min Rain = 0
KTH1 210538Z 15008KT 04/M02 A3009 RMK A01 T00421020  RH  064%=      5-min Rain = 0
KTH1 210539Z 15008KT 04/M02 A3009 RMK A01 T00431020  RH  064%=      5-min Rain = 0
KTH1 210540Z 15006KT 04/M02 A3009 RMK A01 T00431020  RH  064%=      5-min Rain = 0
KTH1 210541Z 15007KT 04/M02 A3009 RMK A01 T00421020  RH  064%=      5-min Rain = 0
KTH1 210542Z 15007KT 04/M02 A3009 RMK A01 T00421020  RH  064%=      5-min Rain = 0
KTH1 210543Z 15007KT 04/M02 A3009 RMK A01 T00421020  RH  064%=      5-min Rain = 0
KTH1 210544Z 15007KT 04/M02 A3009 RMK A01 T00421020  RH  064%=      5-min Rain = 0
KTH1 210545Z 15007KT 04/M02 A3009 RMK A01 T00421019  RH  064%=      5-min Rain = 0
KTH1 210546Z 15007KT 04/M02 A3009 RMK A01 T00421019  RH  064%=      5-min Rain = 0
KTH1 210547Z 15007KT 04/M02 A3009 RMK A01 T00411019  RH  065%=      5-min Rain = 0
KTH1 210548Z 15008KT 04/M02 A3009 RMK A01 T00411019  RH  065%=      5-min Rain = 0
KTH1 210549Z 15008KT 04/M02 A3009 RMK A01 T00421019  RH  065%=      5-min Rain = 0
KTH1 210550Z 15007KT 04/M02 A3009 RMK A01 T00421020  RH  064%=      5-min Rain = 0
KTH1 210551Z 15006KT 04/M02 A3009 RMK A01 T00421019  RH  065%=      5-min Rain = 0
KTH1 210552Z 15007KT 04/M02 A3009 RMK A01 T00421019  RH  065%=      5-min Rain = 0
KTH1 210553Z 15009KT 04/M02 A3009 RMK A01 T00421019  RH  065%=      5-min Rain = 0
KTH1 210554Z 15007KT 04/M02 A3009 RMK A01 T00411020  RH  064%=      5-min Rain = 0
KTH1 210555Z 16007KT 04/M02 A3009 RMK A01 T00421019  RH  064%=      5-min Rain = 0
KTH1 210556Z 16007KT 04/M02 A3009 RMK A01 T00421020  RH  064%=      5-min Rain = 0
KTH1 210557Z 16007KT 04/M02 A3009 RMK A01 T00421019  RH  064%=      5-min Rain = 0
KTH1 210558Z 16007KT 04/M02 A3009 RMK A01 T00421019  RH  064%=      5-min Rain = 0
KTH1 210559Z 16008KT 04/M02 A3009 RMK A01 T00411019  RH  065%=      5-min Rain = 0

Page generated in 0.1284 seconds.